LiveATC.Net - Listen to live air traffic control over the Internet!
Airport/ARTCC Code
Frequency Search
(e.g., 124.400, 128.75)
Site-wide search
 


Browse Feeds
Top 50 Feeds
Coverage Map
Bad Weather Areas

LiveATC FAQ
Offer LiveATC feed
Contact LiveATC.net
Press Inquiries

LiveATC on iPhone
LiveATC on Android

Windows Phone
Windows 8/10

LiveATC Mobile
(Mobile browser)

ATC Audio Archives
Interesting Recordings

LiveATC Forums

Home Page
About LiveATC.net
Make a Donation
Terms of Use
Privacy Policy

Canadian Air Freqs

AIRMETs/SIGMETs

FAA Airport Status
Nat'l Airspace Status
Arrival Demand Charts


Server Software By:
Icecast.org
Liquidsoap

Select an area of interest:
U.S. Feeds: Class B Airports | Class C Airports | Class D/Other Airports | ARTCC (Centers)
International Feeds: Canada | Europe | Oceania | Asia | South America | North/Central America | Africa
Misc Feeds: HF Feeds
Search by ICAO/IATA airport code:   (e.g., kbos, kjfk, lax, eham, etc.)


Currently Available Live Feeds: 2571
Status Updated: Tue May 26 2020 13:24:38 UTC


NOTICE

Unauthorized use prohibited. See LiveATC.net Terms of Service

Europe Airport Feeds

 

EFKU Tower/Approach (Archives)
Siilinjarvi, Finland

Feed Status: UP
Listen in your browser - HTML5 player(in browser, HTML5)
Click here to listen with your own player(launches your MP3 player)

EFKU 261250Z VRB03KT CAVOK 20/M00 Q1029

EFKU Flight Activity (Flightaware)

Listeners: 1 out of 1114 total

Kuopio Approach: 130.600
Kuopio Tower: 120.150

Dutch Mil Radar (Archives)
Amsterdam, Netherlands

Feed Status: UP
Listen in your browser - HTML5 player(in browser, HTML5)
Click here to listen with your own player(launches your MP3 player)

EHLE 261255Z AUTO VRB05KT 9999 FEW041 22/12 Q1035 NOSIG

EHLE Flight Activity (Flightaware)

Listeners: 1 out of 1114 total

Dutch Mil Flight Info: 264.325
Dutch Mil Radar: 128.355
Dutch Mil Radar: 132.350

EHAA Radar ARTIP (Archives)
Amsterdam, Netherlands

Feed Status: UP
Listen in your browser - HTML5 player(in browser, HTML5)
Click here to listen with your own player(launches your MP3 player)

EHAM 261255Z 30008KT 250V360 9999 FEW048 23/11 Q1034 NOSIG

EHAM Flight Activity (Flightaware)

Listeners: 0 out of 1114 total

EHAA Radar Sector 1 ARTIP: 120.550

EHAA Radar East Inbound (Archives)
Amsterdam, Netherlands

Feed Status: UP
Listen in your browser - HTML5 player(in browser, HTML5)
Click here to listen with your own player(launches your MP3 player)

EHAM 261255Z 30008KT 250V360 9999 FEW048 23/11 Q1034 NOSIG

EHAM Flight Activity (Flightaware)

Listeners: 2 out of 1114 total

EHAA Radar Sector 2 East Inbound: 128.575

EHAA Radar East Outbound (Archives)
Amsterdam, Netherlands

Feed Status: UP
Listen in your browser - HTML5 player(in browser, HTML5)
Click here to listen with your own player(launches your MP3 player)

EHAM 261255Z 30008KT 250V360 9999 FEW048 23/11 Q1034 NOSIG

EHAM Flight Activity (Flightaware)

Listeners: 0 out of 1114 total

EHAA Radar Sector 2 East Outbound: 124.875

EHAA Radar North (Archives)
Amsterdam, Netherlands

Feed Status: UP
Listen in your browser - HTML5 player(in browser, HTML5)
Click here to listen with your own player(launches your MP3 player)

EHAM 261255Z 30008KT 250V360 9999 FEW048 23/11 Q1034 NOSIG

EHAM Flight Activity (Flightaware)

Listeners: 0 out of 1114 total

EHAA Radar Sector 1 North: 134.375

EHAA Radar Northwest (Archives)
Amsterdam, Netherlands

Feed Status: UP
Listen in your browser - HTML5 player(in browser, HTML5)
Click here to listen with your own player(launches your MP3 player)

EHAM 261255Z 30008KT 250V360 9999 FEW048 23/11 Q1034 NOSIG

EHAM Flight Activity (Flightaware)

Listeners: 0 out of 1114 total

EHAA Radar Sector 5 Northwest: 123.7000

EHAA Radar RIVER (Archives)
Amsterdam, Netherlands

Feed Status: UP
Listen in your browser - HTML5 player(in browser, HTML5)
Click here to listen with your own player(launches your MP3 player)

EHAM 261255Z 30008KT 250V360 9999 FEW048 23/11 Q1034 NOSIG

EHAM Flight Activity (Flightaware)

Listeners: 0 out of 1114 total

EHAA Radar Sector 3 RIVER: 130.950

EHAA Radar South (Archives)
Amsterdam, Netherlands

Feed Status: UP
Listen in your browser - HTML5 player(in browser, HTML5)
Click here to listen with your own player(launches your MP3 player)

EHAM 261255Z 30008KT 250V360 9999 FEW048 23/11 Q1034 NOSIG

EHAM Flight Activity (Flightaware)

Listeners: 0 out of 1114 total

EHAA Radar Sector 3 South: 123.850

EHAA Radar South (Backup) (Archives)
Amsterdam, Netherlands

Feed Status: UP
Listen in your browser - HTML5 player(in browser, HTML5)
Click here to listen with your own player(launches your MP3 player)

EHAM 261255Z 30008KT 250V360 9999 FEW048 23/11 Q1034 NOSIG

EHAM Flight Activity (Flightaware)

Listeners: 0 out of 1114 total

EHAA Radar Sector 3 South Backup : 127.775

EHAA Radar Southwest (Archives)
Amsterdam, Netherlands

Feed Status: UP
Listen in your browser - HTML5 player(in browser, HTML5)
Click here to listen with your own player(launches your MP3 player)

EHAM 261255Z 30008KT 250V360 9999 FEW048 23/11 Q1034 NOSIG

EHAM Flight Activity (Flightaware)

Listeners: 0 out of 1114 total

EHAA Radar Sector 4 Southwest: 125.750

EHAA Radar SUGOL (Archives)
Amsterdam, Netherlands

Feed Status: UP
Listen in your browser - HTML5 player(in browser, HTML5)
Click here to listen with your own player(launches your MP3 player)

EHAM 261255Z 30008KT 250V360 9999 FEW048 23/11 Q1034 NOSIG

EHAM Flight Activity (Flightaware)

Listeners: 0 out of 1114 total

EHAA Radar Sector 5 SUGOL: 118.800

EHAM Airside Ops Mgr (AOM) (Archives)
Amsterdam, Netherlands

Feed Status: UP
Listen in your browser - HTML5 player(in browser, HTML5)
Click here to listen with your own player(launches your MP3 player)

EHAM 261255Z 30008KT 250V360 9999 FEW048 23/11 Q1034 NOSIG

EHAM Flight Activity (Flightaware)

Listeners: 0 out of 1114 total

Schiphol Airside Operations Manager: 130.475

EHAM App/Dep Backup (Archives)
Amsterdam, Netherlands

Feed Status: UP
Listen in your browser - HTML5 player(in browser, HTML5)
Click here to listen with your own player(launches your MP3 player)

EHAM 261255Z 30008KT 250V360 9999 FEW048 23/11 Q1034 NOSIG

EHAM Flight Activity (Flightaware)

Listeners: 0 out of 1114 total

Schiphol App/Dep Backup: 118.075

EHAM App/Dep TMA East (Archives)
Amsterdam, Netherlands

Feed Status: UP
Listen in your browser - HTML5 player(in browser, HTML5)
Click here to listen with your own player(launches your MP3 player)

EHAM 261255Z 30008KT 250V360 9999 FEW048 23/11 Q1034 NOSIG

EHAM Flight Activity (Flightaware)

Listeners: 3 out of 1114 total

Amsterdam Approach/Departure TMA East: 119.055

EHAM App/Dep TMA West (Archives)
Amsterdam, Netherlands

Feed Status: UP
Listen in your browser - HTML5 player(in browser, HTML5)
Click here to listen with your own player(launches your MP3 player)

EHAM 261255Z 30008KT 250V360 9999 FEW048 23/11 Q1034 NOSIG

EHAM Flight Activity (Flightaware)

Listeners: 1 out of 1114 total

Amsterdam Approach/Departure TMA West: 121.200

EHAM Apron (North) (Archives)
Amsterdam, Netherlands

Feed Status: UP
Listen in your browser - HTML5 player(in browser, HTML5)
Click here to listen with your own player(launches your MP3 player)

EHAM 261255Z 30008KT 250V360 9999 FEW048 23/11 Q1034 NOSIG

EHAM Flight Activity (Flightaware)

Listeners: 0 out of 1114 total

Schiphol Apron (North): 121.880

EHAM Apron (South) (Archives)
Amsterdam, Netherlands

Feed Status: UP
Listen in your browser - HTML5 player(in browser, HTML5)
Click here to listen with your own player(launches your MP3 player)

EHAM 261255Z 30008KT 250V360 9999 FEW048 23/11 Q1034 NOSIG

EHAM Flight Activity (Flightaware)

Listeners: 0 out of 1114 total

Schiphol Apron (South): 121.780

EHAM Arrival (Primary) (Archives)
Amsterdam, Netherlands

Feed Status: UP
Listen in your browser - HTML5 player(in browser, HTML5)
Click here to listen with your own player(launches your MP3 player)

EHAM 261255Z 30008KT 250V360 9999 FEW048 23/11 Q1034 NOSIG

EHAM Flight Activity (Flightaware)

Listeners: 2 out of 1114 total

Amsterdam Arrival : 118.400

EHAM Arrival (Secondary) (Archives)
Amsterdam, Netherlands

Feed Status: UP
Listen in your browser - HTML5 player(in browser, HTML5)
Click here to listen with your own player(launches your MP3 player)

EHAM 261255Z 30008KT 250V360 9999 FEW048 23/11 Q1034 NOSIG

EHAM Flight Activity (Flightaware)

Listeners: 0 out of 1114 total

Amsterdam Arrival (Secondary): 131.150

EHAM Arrival (Secondary/Backup) (Archives)
Amsterdam, Netherlands

Feed Status: UP
Listen in your browser - HTML5 player(in browser, HTML5)
Click here to listen with your own player(launches your MP3 player)

EHAM 261255Z 30008KT 250V360 9999 FEW048 23/11 Q1034 NOSIG

EHAM Flight Activity (Flightaware)

Listeners: 0 out of 1114 total

Amsterdam Arrival (Secondary Backup): 131.275

EHAM Arrival Backup/Discrete (Archives)
Amsterdam, Netherlands

Feed Status: UP
Listen in your browser - HTML5 player(in browser, HTML5)
Click here to listen with your own player(launches your MP3 player)

EHAM 261255Z 30008KT 250V360 9999 FEW048 23/11 Q1034 NOSIG

EHAM Flight Activity (Flightaware)

Listeners: 0 out of 1114 total

Schiphol Arrival Backup: 126.675

EHAM Clearance Delivery (Archives)
Amsterdam, Netherlands

Feed Status: UP
Listen in your browser - HTML5 player(in browser, HTML5)
Click here to listen with your own player(launches your MP3 player)

EHAM 261255Z 30008KT 250V360 9999 FEW048 23/11 Q1034 NOSIG

EHAM Flight Activity (Flightaware)

Listeners: 0 out of 1114 total

Schiphol Clearance Delivery: 121.980

EHAM Ground (Backup) (Archives)
Amsterdam, Netherlands

Feed Status: UP
Listen in your browser - HTML5 player(in browser, HTML5)
Click here to listen with your own player(launches your MP3 player)

EHAM 261255Z 30008KT 250V360 9999 FEW048 23/11 Q1034 NOSIG

EHAM Flight Activity (Flightaware)

Listeners: 0 out of 1114 total

Schiphol Ground (Backup): 122.425

EHAM Ground (North) (Archives)
Amsterdam, Netherlands

Feed Status: UP
Listen in your browser - HTML5 player(in browser, HTML5)
Click here to listen with your own player(launches your MP3 player)

EHAM 261255Z 30008KT 250V360 9999 FEW048 23/11 Q1034 NOSIG

EHAM Flight Activity (Flightaware)

Listeners: 0 out of 1114 total

Schiphol Ground (North): 121.805

EHAM Ground (South) (Archives)
Amsterdam, Netherlands

Feed Status: UP
Listen in your browser - HTML5 player(in browser, HTML5)
Click here to listen with your own player(launches your MP3 player)

EHAM 261255Z 30008KT 250V360 9999 FEW048 23/11 Q1034 NOSIG

EHAM Flight Activity (Flightaware)

Listeners: 0 out of 1114 total

Schiphol Ground (South): 121.705

EHAM Ground (West) (Archives)
Amsterdam, Netherlands

Feed Status: UP
Listen in your browser - HTML5 player(in browser, HTML5)
Click here to listen with your own player(launches your MP3 player)

EHAM 261255Z 30008KT 250V360 9999 FEW048 23/11 Q1034 NOSIG

EHAM Flight Activity (Flightaware)

Listeners: 1 out of 1114 total

Schiphol Ground (West): 121.560

EHAM Info North Sea (North) (Archives)
Amsterdam, Netherlands

Feed Status: UP
Listen in your browser - HTML5 player(in browser, HTML5)
Click here to listen with your own player(launches your MP3 player)

EHAM 261255Z 30008KT 250V360 9999 FEW048 23/11 Q1034 NOSIG

EHAM Flight Activity (Flightaware)

Listeners: 0 out of 1114 total

Amsterdam Info North Sea (North): 119.175

EHAM Info North Sea (Over Land) (Archives)
Amsterdam, Netherlands

Feed Status: UP
Listen in your browser - HTML5 player(in browser, HTML5)
Click here to listen with your own player(launches your MP3 player)

EHAM 261255Z 30008KT 250V360 9999 FEW048 23/11 Q1034 NOSIG

EHAM Flight Activity (Flightaware)

Listeners: 3 out of 1114 total

Amsterdam Info North Sea (Over Land): 124.300

EHAM Info North Sea (South) (Archives)
Amsterdam, Netherlands

Feed Status: UP
Listen in your browser - HTML5 player(in browser, HTML5)
Click here to listen with your own player(launches your MP3 player)

EHAM 261255Z 30008KT 250V360 9999 FEW048 23/11 Q1034 NOSIG

EHAM Flight Activity (Flightaware)

Listeners: 0 out of 1114 total

Amsterdam Info North Sea (South): 136.650

EHAM Ops
Amsterdam, Netherlands

Feed Status: DOWN
Offline since: 2020-03-16 09:18:38 UTC

EHAM 261255Z 30008KT 250V360 9999 FEW048 23/11 Q1034 NOSIG

Schiphol Ops 1: 465.770
Schiphol Ops 2: 466.470
Schiphol Runway Ops: 447.175

EHAM Schiphol Outbound Planner (Archives)
Amsterdam, Netherlands

Feed Status: UP
Listen in your browser - HTML5 player(in browser, HTML5)
Click here to listen with your own player(launches your MP3 player)

EHAM 261255Z 30008KT 250V360 9999 FEW048 23/11 Q1034 NOSIG

EHAM Flight Activity (Flightaware)

Listeners: 0 out of 1114 total

Schiphol Outbound Planner: 121.655

EHAM Tow Traffic (Archives)
Amsterdam, Netherlands

Feed Status: UP
Listen in your browser - HTML5 player(in browser, HTML5)
Click here to listen with your own player(launches your MP3 player)

EHAM 261255Z 30008KT 250V360 9999 FEW048 23/11 Q1034 NOSIG

EHAM Flight Activity (Flightaware)

Listeners: 0 out of 1114 total

Schiphol Tow Traffic: 134.875

EHAM Tower (06/24) (Archives)
Amsterdam, Netherlands

Feed Status: UP
Listen in your browser - HTML5 player(in browser, HTML5)
Click here to listen with your own player(launches your MP3 player)

EHAM 261255Z 30008KT 250V360 9999 FEW048 23/11 Q1034 NOSIG

EHAM Flight Activity (Flightaware)

Listeners: 1 out of 1114 total

Schiphol Tower Main 06/24: 135.110

EHAM Tower (18C/36C-27/09) (Archives)
Amsterdam, Netherlands

Feed Status: UP
Listen in your browser - HTML5 player(in browser, HTML5)
Click here to listen with your own player(launches your MP3 player)

EHAM 261255Z 30008KT 250V360 9999 FEW048 23/11 Q1034 NOSIG

EHAM Flight Activity (Flightaware)

Listeners: 5 out of 1114 total

Schiphol Tower Main 18C/36C - 27/09: 118.100

EHAM Tower (18L/36R-22/04) (Archives)
Amsterdam, Netherlands

Feed Status: UP
Listen in your browser - HTML5 player(in browser, HTML5)
Click here to listen with your own player(launches your MP3 player)

EHAM 261255Z 30008KT 250V360 9999 FEW048 23/11 Q1034 NOSIG

EHAM Flight Activity (Flightaware)

Listeners: 0 out of 1114 total

Schiphol Tower Main 18L/36R - 22/04: 119.225

EHAM Tower Backup (Archives)
Amsterdam, Netherlands

Feed Status: UP
Listen in your browser - HTML5 player(in browser, HTML5)
Click here to listen with your own player(launches your MP3 player)

EHAM 261255Z 30008KT 250V360 9999 FEW048 23/11 Q1034 NOSIG

EHAM Flight Activity (Flightaware)

Listeners: 1 out of 1114 total

Schiphol Tower Backup: 119.905

EHAM Tower West (18R/36L) (Archives)
Amsterdam, Netherlands

Feed Status: UP
Listen in your browser - HTML5 player(in browser, HTML5)
Click here to listen with your own player(launches your MP3 player)

EHAM 261255Z 30008KT 250V360 9999 FEW048 23/11 Q1034 NOSIG

EHAM Flight Activity (Flightaware)

Listeners: 2 out of 1114 total

Schiphol Tower West 18R/36L: 118.280

EHBK ATIS (Archives)
Beek, Netherlands

Feed Status: UP
Listen in your browser - HTML5 player(in browser, HTML5)
Click here to listen with your own player(launches your MP3 player)

EHBK 261255Z AUTO 35009KT 300V090 9999 NSC 22/07 Q1034 NOSIG

EHBK Flight Activity (Flightaware)

Listeners: 0 out of 1114 total

Beek ATIS: 124.575

EHBK Gnd/Twr/App (Archives)
Beek, Netherlands

Feed Status: UP
Listen in your browser - HTML5 player(in browser, HTML5)
Click here to listen with your own player(launches your MP3 player)

EHBK 261255Z AUTO 35009KT 300V090 9999 NSC 22/07 Q1034 NOSIG

EHBK Flight Activity (Flightaware)

Listeners: 2 out of 1114 total

Beek Approach: 120.200
Beek Approach: 123.975
Beek Ground: 121.825
Beek Tower: 119.475
Beek Tower: 119.700

MUAC/Eurocontrol Delta High (Archives)
Beek, Netherlands

Feed Status: UP
Listen in your browser - HTML5 player(in browser, HTML5)
Click here to listen with your own player(launches your MP3 player)

EHBK 261255Z AUTO 35009KT 300V090 9999 NSC 22/07 Q1034 NOSIG

EHBK Flight Activity (Flightaware)

Listeners: 1 out of 1114 total

MUAC Delta High Sector: 132.085

MUAC/Eurocontrol Koksy (Archives)
Beek, Netherlands

Feed Status: UP
Listen in your browser - HTML5 player(in browser, HTML5)
Click here to listen with your own player(launches your MP3 player)

EHBK 261255Z AUTO 35009KT 300V090 9999 NSC 22/07 Q1034 NOSIG

EHBK Flight Activity (Flightaware)

Listeners: 0 out of 1114 total

MUAC Koksy Sector: 132.205

MUAC/Eurocontrol Koksy High (Archives)
Beek, Netherlands

Feed Status: UP
Listen in your browser - HTML5 player(in browser, HTML5)
Click here to listen with your own player(launches your MP3 player)

EHBK 261255Z AUTO 35009KT 300V090 9999 NSC 22/07 Q1034 NOSIG

EHBK Flight Activity (Flightaware)

Listeners: 0 out of 1114 total

MUAC Koksy High Sector: 132.755

MUAC/Eurocontrol Lux High (Archives)
Beek, Netherlands

Feed Status: UP
Listen in your browser - HTML5 player(in browser, HTML5)
Click here to listen with your own player(launches your MP3 player)

EHBK 261255Z AUTO 35009KT 300V090 9999 NSC 22/07 Q1034 NOSIG

EHBK Flight Activity (Flightaware)

Listeners: 0 out of 1114 total

MUAC Lux High Sector: 132.315

MUAC/Eurocontrol Lux Low (Archives)
Beek, Netherlands

Feed Status: UP
Listen in your browser - HTML5 player(in browser, HTML5)
Click here to listen with your own player(launches your MP3 player)

EHBK 261255Z AUTO 35009KT 300V090 9999 NSC 22/07 Q1034 NOSIG

EHBK Flight Activity (Flightaware)

Listeners: 0 out of 1114 total

MUAC Lux Low Sector: 133.355

MUAC/Eurocontrol Olno Low (Archives)
Beek, Netherlands

Feed Status: UP
Listen in your browser - HTML5 player(in browser, HTML5)
Click here to listen with your own player(launches your MP3 player)

EHBK 261255Z AUTO 35009KT 300V090 9999 NSC 22/07 Q1034 NOSIG

EHBK Flight Activity (Flightaware)

Listeners: 1 out of 1114 total

MUAC Olno Low Sector: 132.855

MUAC/Eurocontrol Ruhr (Archives)
Beek, Netherlands

Feed Status: UP
Listen in your browser - HTML5 player(in browser, HTML5)
Click here to listen with your own player(launches your MP3 player)

EHBK 261255Z AUTO 35009KT 300V090 9999 NSC 22/07 Q1034 NOSIG

EHBK Flight Activity (Flightaware)

Listeners: 1 out of 1114 total

MUAC Ruhr Sector: 132.515

EHEH Approach #1 (Archives)
Eindhoven, Netherlands

Feed Status: UP
Listen in your browser - HTML5 player(in browser, HTML5)
Click here to listen with your own player(launches your MP3 player)

EHEH 261255Z AUTO VRB06KT 9999 NCD 24/08 Q1035 BLU 03006KT CAVOK

EHEH Flight Activity (Flightaware)

Listeners: 1 out of 1114 total

DutchMil: 132.530
DutchMil RAPCON South: 379.925
DutchMil RAPCON South: 123.180
Eindhoven Arrival/Director: 124.530

EHEH Approach #2
Eindhoven, Netherlands

Feed Status: DOWN
Offline since: 2020-04-23 06:00:22 UTC

EHEH 261255Z AUTO VRB06KT 9999 NCD 24/08 Q1035 BLU 03006KT CAVOK

Eindhoven Approach/Arrival: 124.530
Eindhoven Approach/Arrival: 132.530
Eindhoven Approach/Arrival: 278.050

EHEH Ground
Eindhoven, Netherlands

Feed Status: DOWN
Offline since: 2020-04-23 06:00:22 UTC

EHEH 261255Z AUTO VRB06KT 9999 NCD 24/08 Q1035 BLU 03006KT CAVOK

Eindhoven Ground: 121.930
Eindhoven Ground: 369.250

EHEH Tower #1 (Archives)
Eindhoven, Netherlands

Feed Status: UP
Listen in your browser - HTML5 player(in browser, HTML5)
Click here to listen with your own player(launches your MP3 player)

EHEH 261255Z AUTO VRB06KT 9999 NCD 24/08 Q1035 BLU 03006KT CAVOK

EHEH Flight Activity (Flightaware)

Listeners: 3 out of 1114 total

Budel Tower: 122.155
Eindhoven Tower: 131.005
Emergency/Guard: 121.500
Generic Tower: 122.100
Volkel Tower: 372.225
Volkel Tower: 136.080

EHEH Tower #2
Eindhoven, Netherlands

Feed Status: DOWN
Offline since: 2020-04-23 06:00:22 UTC

EHEH 261255Z AUTO VRB06KT 9999 NCD 24/08 Q1035 BLU 03006KT CAVOK

Eindhoven Tower: 122.100
Eindhoven Tower: 131.005
Eindhoven Tower: 281.150

EHGG Approach (Archives)
Groningen, Netherlands

Feed Status: UP
Listen in your browser - HTML5 player(in browser, HTML5)
Click here to listen with your own player(launches your MP3 player)

EHGG 261255Z AUTO 09004KT 010V180 9999 NSC 20/10 Q1035 NOSIG

EHGG Flight Activity (Flightaware)

Listeners: 2 out of 1114 total

Eelde Approach: 120.305

EHGG ATIS (Archives)
Groningen, Netherlands

Feed Status: UP
Listen in your browser - HTML5 player(in browser, HTML5)
Click here to listen with your own player(launches your MP3 player)

EHGG 261255Z AUTO 09004KT 010V180 9999 NSC 20/10 Q1035 NOSIG

EHGG Flight Activity (Flightaware)

Listeners: 0 out of 1114 total

Groningen ATIS: 133.555

EHGG Ground (Archives)
Groningen, Netherlands

Feed Status: UP
Listen in your browser - HTML5 player(in browser, HTML5)
Click here to listen with your own player(launches your MP3 player)

EHGG 261255Z AUTO 09004KT 010V180 9999 NSC 20/10 Q1035 NOSIG

EHGG Flight Activity (Flightaware)

Listeners: 1 out of 1114 total

Eelde Clearance Delivery/Ground: 121.705

EHGG Guard/Emergency (Archives)
Groningen, Netherlands

Feed Status: UP
Listen in your browser - HTML5 player(in browser, HTML5)
Click here to listen with your own player(launches your MP3 player)

EHGG 261255Z AUTO 09004KT 010V180 9999 NSC 20/10 Q1035 NOSIG

EHGG Flight Activity (Flightaware)

Listeners: 0 out of 1114 total

Emergency/Guard: 121.500

EHGG Tower (Archives)
Groningen, Netherlands

Feed Status: UP
Listen in your browser - HTML5 player(in browser, HTML5)
Click here to listen with your own player(launches your MP3 player)

EHGG 261255Z AUTO 09004KT 010V180 9999 NSC 20/10 Q1035 NOSIG

EHGG Flight Activity (Flightaware)

Listeners: 4 out of 1114 total

Eelde Tower: 118.705

MUAC/Eurocontrol (EHGG Area) (Archives)
Groningen, Netherlands

Feed Status: UP
Listen in your browser - HTML5 player(in browser, HTML5)
Click here to listen with your own player(launches your MP3 player)

EHGG 261255Z AUTO 09004KT 010V180 9999 NSC 20/10 Q1035 NOSIG

EHGG Flight Activity (Flightaware)

Listeners: 0 out of 1114 total

MUAC Holstein High Sector: 132.775
MUAC Holstein Sector: 120.9333
MUAC Javer High Sector: 134.700
MUAC Jever Sector: 136.4666

EHHV CTAF (Archives)
Hilversum, Netherlands

Feed Status: UP
Listen in your browser - HTML5 player(in browser, HTML5)
Click here to listen with your own player(launches your MP3 player)

EHHV Flight Activity (Flightaware)

Listeners: 0 out of 1114 total

Hilversum Radio: 131.025

Approach/Dutch Mil Radar (Archives)
Lelystad, Netherlands

Feed Status: UP
Listen in your browser - HTML5 player(in browser, HTML5)
Click here to listen with your own player(launches your MP3 player)

EHLE 261255Z AUTO VRB05KT 9999 FEW041 22/12 Q1035 NOSIG

EHLE Flight Activity (Flightaware)

Listeners: 1 out of 1114 total

Dutch Mil Flight Info: 264.325
Dutch Mil Radar: 128.355
Dutch Mil Radar: 132.350

EHLE Tower (Archives)
Lelystad, Netherlands

Feed Status: UP
Listen in your browser - HTML5 player(in browser, HTML5)
Click here to listen with your own player(launches your MP3 player)

EHLE 261255Z AUTO VRB05KT 9999 FEW041 22/12 Q1035 NOSIG

EHLE Flight Activity (Flightaware)

Listeners: 6 out of 1114 total

Lelystad Clearance Delivery: 123.680
Lelystad Tower: 135.180
Lelystad Tower: 123.830

EHMC/EHML Military/Radar (Archives)
Nieuw-Milligen, Netherlands

Feed Status: UP
Listen in your browser - HTML5 player(in browser, HTML5)
Click here to listen with your own player(launches your MP3 player)

EHMC Flight Activity (Flightaware)

Listeners: 0 out of 1114 total

AMCC: 234.000
Belga Radar: 129.325
Command Post: 313.550
Dutch Military Radar: 120.825
Dutch Military Radar: 125.925
Dutch Military Radar: 128.350
GCI: 363.100
Lippe Radar: 131.075
London Mil: 135.275
Meteo: 284.425

EHMC/EHML Military/Radar (Archives)
Nieuw-Milligen, Netherlands

Feed Status: UP
Listen in your browser - HTML5 player(in browser, HTML5)
Click here to listen with your own player(launches your MP3 player)

EHMC Flight Activity (Flightaware)

Listeners: 0 out of 1114 total

AMCC: 234.000
Belga Radar: 129.325
Command Post: 313.550
Dutch Military Radar: 120.825
Dutch Military Radar: 125.925
Dutch Military Radar: 128.350
GCI: 363.100
Lippe Radar: 131.075
London Mil: 135.275
Meteo: 284.425

EHMM CTAF (Archives)
Middenmeer, Netherlands

Feed Status: UP
Listen in your browser - HTML5 player(in browser, HTML5)
Click here to listen with your own player(launches your MP3 player)

EHMM Flight Activity (Flightaware)

Listeners: 0 out of 1114 total

Middenmeer CTAF: 123.425

EHRD Approach (Archives)
Rotterdam, Netherlands

Feed Status: UP
Listen in your browser - HTML5 player(in browser, HTML5)
Click here to listen with your own player(launches your MP3 player)

EHRD 261255Z AUTO 29008KT 240V340 9999 NSC 23/09 Q1034 NOSIG

EHRD Flight Activity (Flightaware)

Listeners: 0 out of 1114 total

Rotterdam Approach: 124.535
Rotterdam Approach: 281.050

EHRD Clearance Delivery (Archives)
Rotterdam, Netherlands

Feed Status: UP
Listen in your browser - HTML5 player(in browser, HTML5)
Click here to listen with your own player(launches your MP3 player)

EHRD 261255Z AUTO 29008KT 240V340 9999 NSC 23/09 Q1034 NOSIG

EHRD Flight Activity (Flightaware)

Listeners: 0 out of 1114 total

Rotterdam Del/Gnd: 122.180

EHRD Del/Twr (Archives)
Rotterdam, Netherlands

Feed Status: UP
Listen in your browser - HTML5 player(in browser, HTML5)
Click here to listen with your own player(launches your MP3 player)

EHRD 261255Z AUTO 29008KT 240V340 9999 NSC 23/09 Q1034 NOSIG

EHRD Flight Activity (Flightaware)

Listeners: 1 out of 1114 total

Rotterdam Del/Gnd: 122.180
Rotterdam Tower: 118.205

EHRD Gnd/Twr/App (Archives)
Rotterdam, Netherlands

Feed Status: UP
Listen in your browser - HTML5 player(in browser, HTML5)
Click here to listen with your own player(launches your MP3 player)

EHRD 261255Z AUTO 29008KT 240V340 9999 NSC 23/09 Q1034 NOSIG

EHRD Flight Activity (Flightaware)

Listeners: 2 out of 1114 total

Adam Info: 124.300
Regional Guard: 119.705
Rotterdam Approach: 127.025
Rotterdam Del/Gnd: 122.180
Rotterdam Tower: 118.205
SAR: 123.100
SAR: 282.800

EHRD Tower (Archives)
Rotterdam, Netherlands

Feed Status: UP
Listen in your browser - HTML5 player(in browser, HTML5)
Click here to listen with your own player(launches your MP3 player)

EHRD 261255Z AUTO 29008KT 240V340 9999 NSC 23/09 Q1034 NOSIG

EHRD Flight Activity (Flightaware)

Listeners: 1 out of 1114 total

Rotterdam Tower: 118.205
Rotterdam Tower: 362.300

EHRD Twr/App
Rotterdam, Netherlands

Feed Status: DOWN
Offline since: 2020-03-14 14:15:39 UTC

EHRD 261255Z AUTO 29008KT 240V340 9999 NSC 23/09 Q1034 NOSIG

Rotterdam Approach: 127.025
Rotterdam Tower: 118.205

EHTX Gnd/Twr (Archives)
Texel, Netherlands

Feed Status: UP
Listen in your browser - HTML5 player(in browser, HTML5)
Click here to listen with your own player(launches your MP3 player)

EHTX Flight Activity (Flightaware)

Listeners: 1 out of 1114 total

Texel Radio (Ground/Tower): 119.300

EHVL CTAF/Range Control (Archives)
Vlieland, Netherlands

Feed Status: UP
Listen in your browser - HTML5 player(in browser, HTML5)
Click here to listen with your own player(launches your MP3 player)

EHVL 261255Z AUTO 26009KT 210V290 9999 OVC170 19/12 Q1035 BLU

EHVL Flight Activity (Flightaware)

Listeners: 1 out of 1114 total

Cornfield VHF (CTAF): 122.100
Range Controller (Primary): 291.650
Range Controller (Secondary): 370.300
Range Controller VHF: 138.075

EICK Approach/Departure (Archives)
Cork, Ireland

Feed Status: UP
Listen in your browser - HTML5 player(in browser, HTML5)
Click here to listen with your own player(launches your MP3 player)

EICK 261230Z 19005KT 9999 SCT012 BKN040 17/14 Q1037 NOSIG

EICK Flight Activity (Flightaware)

Listeners: 1 out of 1114 total

Cork Approach: 119.900

EICK Gnd/Twr/App/Dep (Archives)
Cork, Ireland

Feed Status: UP
Listen in your browser - HTML5 player(in browser, HTML5)
Click here to listen with your own player(launches your MP3 player)

EICK 261230Z 19005KT 9999 SCT012 BKN040 17/14 Q1037 NOSIG

EICK Flight Activity (Flightaware)

Listeners: 1 out of 1114 total

Cork Approach: 119.900
Cork Ground: 121.850
Cork Tower: 119.300

EICK Ground/Tower (Archives)
Cork, Ireland

Feed Status: UP
Listen in your browser - HTML5 player(in browser, HTML5)
Click here to listen with your own player(launches your MP3 player)

EICK 261230Z 19005KT 9999 SCT012 BKN040 17/14 Q1037 NOSIG

EICK Flight Activity (Flightaware)

Listeners: 1 out of 1114 total

Cork Ground: 121.850
Cork Tower: 119.300

EIDW Approach (Archives)
Dublin, Ireland

Feed Status: UP
Listen in your browser - HTML5 player(in browser, HTML5)
Click here to listen with your own player(launches your MP3 player)

EIDW 261230Z 16005KT 340V340 9999 SCT030 17/08 Q1037 NOSIG

EIDW Flight Activity (Flightaware)

Listeners: 3 out of 1114 total

Dublin Approach: 121.100

EIDW Approach (Final) (Archives)
Dublin, Ireland

Feed Status: UP
Listen in your browser - HTML5 player(in browser, HTML5)
Click here to listen with your own player(launches your MP3 player)

EIDW 261230Z 16005KT 340V340 9999 SCT030 17/08 Q1037 NOSIG

EIDW Flight Activity (Flightaware)

Listeners: 1 out of 1114 total

Dublin Approach (Final): 119.925

EIDW Clearance Delivery (Archives)
Dublin, Ireland

Feed Status: UP
Listen in your browser - HTML5 player(in browser, HTML5)
Click here to listen with your own player(launches your MP3 player)

EIDW 261230Z 16005KT 340V340 9999 SCT030 17/08 Q1037 NOSIG

EIDW Flight Activity (Flightaware)

Listeners: 2 out of 1114 total

Dublin Clearance Delivery: 121.875

EIDW Del/Gnd/Twr/App/Center (Archives)
Dublin, Ireland

Feed Status: UP
Listen in your browser - HTML5 player(in browser, HTML5)
Click here to listen with your own player(launches your MP3 player)

EIDW 261230Z 16005KT 340V340 9999 SCT030 17/08 Q1037 NOSIG

EIDW Flight Activity (Flightaware)

Listeners: 31 out of 1114 total

Dublin Approach: 121.100
Dublin Approach (backup): 119.550
Dublin Centre North: 129.175
Dublin Centre South: 126.250
Dublin Clearance Delivery: 121.875
Dublin FIS: 118.500
Dublin Ground: 121.800
Dublin Tower: 118.600

EIDW Ground (Archives)
Dublin, Ireland

Feed Status: UP
Listen in your browser - HTML5 player(in browser, HTML5)
Click here to listen with your own player(launches your MP3 player)

EIDW 261230Z 16005KT 340V340 9999 SCT030 17/08 Q1037 NOSIG

EIDW Flight Activity (Flightaware)

Listeners: 1 out of 1114 total

Dublin Ground: 121.800

EIDW Ground (North) (Archives)
Dublin, Ireland

Feed Status: UP
Listen in your browser - HTML5 player(in browser, HTML5)
Click here to listen with your own player(launches your MP3 player)

EIDW 261230Z 16005KT 340V340 9999 SCT030 17/08 Q1037 NOSIG

EIDW Flight Activity (Flightaware)

Listeners: 1 out of 1114 total

Dublin Ground (North): 118.750

EIDW Tower (Archives)
Dublin, Ireland

Feed Status: UP
Listen in your browser - HTML5 player(in browser, HTML5)
Click here to listen with your own player(launches your MP3 player)

EIDW 261230Z 16005KT 340V340 9999 SCT030 17/08 Q1037 NOSIG

EIDW Flight Activity (Flightaware)

Listeners: 7 out of 1114 total

Dublin Tower: 118.600

EIKN Gnd/Twr/App (Archives)
Charlestown, Ireland

Feed Status: UP
Listen in your browser - HTML5 player(in browser, HTML5)
Click here to listen with your own player(launches your MP3 player)

EIKN 201600Z 18014KT 150V220 9999 FEW020 BKN220 17/11 Q1014 NOSIG

EIKN Flight Activity (Flightaware)

Listeners: 2 out of 1114 total

Connaught Ground: 121.900
Connaught Tower: 130.700
Shannon Low Level: 119.075

EINN Approach/Departure (Archives)
Shannon, Ireland

Feed Status: UP
Listen in your browser - HTML5 player(in browser, HTML5)
Click here to listen with your own player(launches your MP3 player)

EINN 261230Z 23006KT 190V280 9999 FEW030 SCT180 17/10 Q1037 NOSIG

EINN Flight Activity (Flightaware)

Listeners: 1 out of 1114 total

Shannon Approach Radar: 121.400
Shannon Low: 124.700

EINN Gnd/Twr/Ops (Archives)
Shannon, Ireland

Feed Status: UP
Listen in your browser - HTML5 player(in browser, HTML5)
Click here to listen with your own player(launches your MP3 player)

EINN 261230Z 23006KT 190V280 9999 FEW030 SCT180 17/10 Q1037 NOSIG

EINN Flight Activity (Flightaware)

Listeners: 1 out of 1114 total

Aer Lingus Ops: 131.500
Service Air Ops: 131.450
Shannon Ground: 121.800
Shannon Tower: 118.700
Sig Ops (Pre-Clearance): 131.590

EINN Shannon Control High #1 (Archives)
Shannon, Ireland

Feed Status: UP
Listen in your browser - HTML5 player(in browser, HTML5)
Click here to listen with your own player(launches your MP3 player)

EINN 261230Z 23006KT 190V280 9999 FEW030 SCT180 17/10 Q1037 NOSIG

EINN Flight Activity (Flightaware)

Listeners: 5 out of 1114 total

Shannon Clearance (Oceanic only): 121.700
Shannon Control: 134.630
Shannon Control: 134.260
Shannon Control: 119.075
Shannon Control (BABAN/DEVOL Sector): 132.150
Shannon Control (Cork Sector): 131.150
Shannon Control (Shannon Sector): 134.280
Shannon Control (SOTA Sector): 135.600
Shannon Control NOTA: 125.875
Shannon Control NOTA: 122.980
Shannon High Level (SOTA Sector): 135.230
Shanwick Radio: 127.650
Track Information: 133.800

EINN Twr/App #1 (Archives)
Shannon, Ireland

Feed Status: UP
Listen in your browser - HTML5 player(in browser, HTML5)
Click here to listen with your own player(launches your MP3 player)

EINN 261230Z 23006KT 190V280 9999 FEW030 SCT180 17/10 Q1037 NOSIG

EINN Flight Activity (Flightaware)

Listeners: 2 out of 1114 total

Aer Lingus Ops: 131.500
Service Air Ops: 131.450
Shannon Approach Radar: 121.400
Shannon Control: Misc
Shannon Ground: 121.800
Shannon Tower: 118.700
Sig Ops (Pre-Clearance): 131.590

ENAT Twr/App/Control (Archives)
Alta, Norway

Feed Status: UP
Listen in your browser - HTML5 player(in browser, HTML5)
Click here to listen with your own player(launches your MP3 player)

ENAT 261250Z 15010KT CAVOK 14/02 Q1026 RMK WIND 700FT 16008KT

ENAT Flight Activity (Flightaware)

Listeners: 0 out of 1114 total

Alta Tower (to boat, Harbour Channel 12): 156.600
Alta Tower (to vehicle): 462.400
Alta Tower/Approach: 120.400
Norway Control: 126.700

ENBO Approach (Archives)
Bodo, Norway

Feed Status: UP
Listen in your browser - HTML5 player(in browser, HTML5)
Click here to listen with your own player(launches your MP3 player)

ENBO 261250Z 12006KT 9999 FEW050 BKN070 14/02 Q1026 BECMG 24010KT

ENBO Flight Activity (Flightaware)

Listeners: 0 out of 1114 total

Bodo Approach: 119.700

ENBO Tower (Archives)
Bodo, Norway

Feed Status: UP
Listen in your browser - HTML5 player(in browser, HTML5)
Click here to listen with your own player(launches your MP3 player)

ENBO 261250Z 12006KT 9999 FEW050 BKN070 14/02 Q1026 BECMG 24010KT

ENBO Flight Activity (Flightaware)

Listeners: 0 out of 1114 total

Bodo Tower: 118.100

ENCN Tower/Approach (Archives)
Kristiansand, Norway

Feed Status: UP
Listen in your browser - HTML5 player(in browser, HTML5)
Click here to listen with your own player(launches your MP3 player)

ENCN 261250Z 19015KT 9999 FEW040 15/09 Q1033

ENCN Flight Activity (Flightaware)

Listeners: 0 out of 1114 total

Kjevik Tower: 118.100
Kjevik Tower/Approach: 119.950

ENEV Twr/App/ACC (Archives)
Evenes, Norway

Feed Status: UP
Listen in your browser - HTML5 player(in browser, HTML5)
Click here to listen with your own player(launches your MP3 player)

ENEV 261250Z VRB03KT 9999 BKN044 13/03 Q1026 RMK WIND 1400FT 15010KT

ENEV Flight Activity (Flightaware)

Listeners: 0 out of 1114 total

Evenes Approach: 120.100
Evenes Tower: 118.000
Norway ACC (Bodo Sector 25): 126.450

ENGM Approach (Archives)
Oslo, Norway

Feed Status: UP
Listen in your browser - HTML5 player(in browser, HTML5)
Click here to listen with your own player(launches your MP3 player)

ENGM 261250Z 19016KT CAVOK 18/04 Q1030 NOSIG

ENGM Flight Activity (Flightaware)

Listeners: 0 out of 1114 total

Oslo Approach: 118.475
Oslo Approach: 120.450

ENGM Tower (Archives)
Oslo, Norway

Feed Status: UP
Listen in your browser - HTML5 player(in browser, HTML5)
Click here to listen with your own player(launches your MP3 player)

ENGM 261250Z 19016KT CAVOK 18/04 Q1030 NOSIG

ENGM Flight Activity (Flightaware)

Listeners: 1 out of 1114 total

Oslo Tower (East): 120.100
Oslo Tower (West): 118.300

ENJB CTAF (Archives)
Tonsberg, Norway

Feed Status: UP
Listen in your browser - HTML5 player(in browser, HTML5)
Click here to listen with your own player(launches your MP3 player)

ENTO 261250Z 16011KT 140V220 9999 FEW012 SCT020 13/09 Q1032 NOSIG

ENTO Flight Activity (Flightaware)

Listeners: 0 out of 1114 total

Jarlsberg CTAF: 122.300

ENKJ RDO (Archives)
Kjeller, Norway

Feed Status: UP
Listen in your browser - HTML5 player(in browser, HTML5)
Click here to listen with your own player(launches your MP3 player)

ENKJ Flight Activity (Flightaware)

Listeners: 1 out of 1114 total

Kjeller RDO: 119.100

ENLI CTAF (Archives)
Farsund, Norway

Feed Status: UP
Listen in your browser - HTML5 player(in browser, HTML5)
Click here to listen with your own player(launches your MP3 player)

ENLI Flight Activity (Flightaware)

Listeners: 0 out of 1114 total

Lista Traffic/Lista Radio: 126.450

ENML Gnd/Twr/App/Center
Molde, Norway

Feed Status: DOWN
Offline since: 2020-04-17 21:29:05 UTC

ENML 261250Z 25005KT 200V280 9999 -SHRA FEW030 BKN045 12/08 Q1028

Molde Info: 119.950

ENRK CTAF (Archives)
Astorp, Norway

Feed Status: UP
Listen in your browser - HTML5 player(in browser, HTML5)
Click here to listen with your own player(launches your MP3 player)

ENRK Flight Activity (Flightaware)

Listeners: 0 out of 1114 total

Rakkestad CTAF: 122.950

ENOR Sector 8 (Archives)
Moss, Norway

Feed Status: UP
Listen in your browser - HTML5 player(in browser, HTML5)
Click here to listen with your own player(launches your MP3 player)

ENOR Flight Activity (Flightaware)

Listeners: 0 out of 1114 total

Norway Center (FIR) Sector 8: 118.875

ENRY Tower (Archives)
Moss, Norway

Feed Status: UP
Listen in your browser - HTML5 player(in browser, HTML5)
Click here to listen with your own player(launches your MP3 player)

ENRY 261220Z 19014KT CAVOK 14/09 Q1032 NOSIG

ENRY Flight Activity (Flightaware)

Listeners: 1 out of 1114 total

Rygge Tower: 119.500

ENTC Tower/App (Archives)
Langnes, Norway

Feed Status: UP
Listen in your browser - HTML5 player(in browser, HTML5)
Click here to listen with your own player(launches your MP3 player)

ENTC 261250Z VRB03KT 9999 FEW061 SCT092 BKN110 12/02 Q1026 NOSIG RMK WIND 2600FT 18018KT

ENTC Flight Activity (Flightaware)

Listeners: 0 out of 1114 total

Langnes Tower: 118.300
Langnes VDF (Approach): 123.750

ENTO App/Dep (Archives)
Sandefjord, Norway

Feed Status: UP
Listen in your browser - HTML5 player(in browser, HTML5)
Click here to listen with your own player(launches your MP3 player)

ENTO 261250Z 16011KT 140V220 9999 FEW012 SCT020 13/09 Q1032 NOSIG

ENTO Flight Activity (Flightaware)

Listeners: 0 out of 1114 total

Sandefjord Approach (TMA): 134.050

ENTO Control Sector 4 (Archives)
Sandefjord, Norway

Feed Status: UP
Listen in your browser - HTML5 player(in browser, HTML5)
Click here to listen with your own player(launches your MP3 player)

ENTO 261250Z 16011KT 140V220 9999 FEW012 SCT020 13/09 Q1032 NOSIG

ENTO Flight Activity (Flightaware)

Listeners: 0 out of 1114 total

Norway control Sector 4: 118.875

ENTO Tower (Archives)
Sandefjord, Norway

Feed Status: UP
Listen in your browser - HTML5 player(in browser, HTML5)
Click here to listen with your own player(launches your MP3 player)

ENTO 261250Z 16011KT 140V220 9999 FEW012 SCT020 13/09 Q1032 NOSIG

ENTO Flight Activity (Flightaware)

Listeners: 0 out of 1114 total

Sandefjord Tower: 118.650

ENTO Tower/App (Archives)
Sandefjord, Norway

Feed Status: UP
Listen in your browser - HTML5 player(in browser, HTML5)
Click here to listen with your own player(launches your MP3 player)

ENTO 261250Z 16011KT 140V220 9999 FEW012 SCT020 13/09 Q1032 NOSIG

ENTO Flight Activity (Flightaware)

Listeners: 0 out of 1114 total

ENJB Tonsberg Airport - Jarlsberg - CTAF: 122.300
Farris Approach (TCA): 134.050
Sandefjord Tower: 118.650

ENTO Twr/App (Archives)
Sandefjord, Norway

Feed Status: UP
Listen in your browser - HTML5 player(in browser, HTML5)
Click here to listen with your own player(launches your MP3 player)

ENTO 261250Z 16011KT 140V220 9999 FEW012 SCT020 13/09 Q1032 NOSIG

ENTO Flight Activity (Flightaware)

Listeners: 0 out of 1114 total

Sandefjord Approach (TMA): 134.050
Sandefjord Tower: 118.650

ENVA Gnd/Twr/App (Archives)
Trondheim, Norway

Feed Status: UP
Listen in your browser - HTML5 player(in browser, HTML5)
Click here to listen with your own player(launches your MP3 player)

ENVA 261250Z 25008KT CAVOK 13/07 Q1027 NOSIG RMK WIND 670FT 29005KT

ENVA Flight Activity (Flightaware)

Listeners: 2 out of 1114 total

Trondheim Approach: 118.600
Trondheim Ground: 121.600
Trondheim Tower: 119.400

ENZV Gnd/Twr/App (Archives)
Stavanger, Norway

Feed Status: UP
Listen in your browser - HTML5 player(in browser, HTML5)
Click here to listen with your own player(launches your MP3 player)

ENZV 261250Z 17011KT 9999 FEW015 BKN070 14/10 Q1032 NOSIG

ENZV Flight Activity (Flightaware)

Listeners: 0 out of 1114 total

Sola Approach/Departure: 119.600
Sola Ground: 121.750
Sola Tower: 118.350

EPGD Tower/Approach (Archives)
Gdansk, Poland

Feed Status: UP
Listen in your browser - HTML5 player(in browser, HTML5)
Click here to listen with your own player(launches your MP3 player)

EPGD 261230Z 35004KT 310V050 9999 FEW016 15/10 Q1033

EPGD Flight Activity (Flightaware)

Listeners: 2 out of 1114 total

Gdansk Approach: 127.275
Gdansk Tower: 118.100

EPKK Tower/App (Archives)
Krakow, Poland

Feed Status: UP
Listen in your browser - HTML5 player(in browser, HTML5)
Click here to listen with your own player(launches your MP3 player)

EPKK 261230Z 34012KT 320V020 9999 SCT025 SCT035CB 17/09 Q1028

EPKK Flight Activity (Flightaware)

Listeners: 2 out of 1114 total

Krakow Approach: 121.075
Krakow Approach: 123.255
Krakow Tower: 123.255

EPKR CTAF (Archives)
Krosno, Poland

Feed Status: UP
Listen in your browser - HTML5 player(in browser, HTML5)
Click here to listen with your own player(launches your MP3 player)

EPKR Flight Activity (Flightaware)

Listeners: 1 out of 1114 total

Krosno CTAF: 122.400

EPKT Del/Twr/App (Archives)
Katowice, Poland

Feed Status: UP
Listen in your browser - HTML5 player(in browser, HTML5)
Click here to listen with your own player(launches your MP3 player)

EPKT 261230Z 33010KT 9999 FEW014 SCT040CB 14/11 Q1029

EPKT Flight Activity (Flightaware)

Listeners: 0 out of 1114 total

Katowice Delivery: 121.800
Katowice Tower: 129.250
Krakow Approach: 135.400
Krakow Approach: 121.075

EPKT Delivery/Approach (Archives)
Katowice, Poland

Feed Status: UP
Listen in your browser - HTML5 player(in browser, HTML5)
Click here to listen with your own player(launches your MP3 player)

EPKT 261230Z 33010KT 9999 FEW014 SCT040CB 14/11 Q1029

EPKT Flight Activity (Flightaware)

Listeners: 0 out of 1114 total

Katowice Delivery: 121.800
Krakow Approach: 121.075

EPKT Tower/Approach (Archives)
Katowice, Poland

Feed Status: UP
Listen in your browser - HTML5 player(in browser, HTML5)
Click here to listen with your own player(launches your MP3 player)

EPKT 261230Z 33010KT 9999 FEW014 SCT040CB 14/11 Q1029

EPKT Flight Activity (Flightaware)

Listeners: 0 out of 1114 total

Katowice Tower: 129.250
Krakow Approach: 135.400

EPLL Tower (Archives)
Lodz, Poland

Feed Status: UP
Listen in your browser - HTML5 player(in browser, HTML5)
Click here to listen with your own player(launches your MP3 player)

EPLL 261230Z 33009KT 250V010 9999 SCT019 BKN022 13/08 Q1031

EPLL Flight Activity (Flightaware)

Listeners: 0 out of 1114 total

Lodz Tower: 124.230

EPML Info (Archives)
Mielec, Poland

Feed Status: UP
Listen in your browser - HTML5 player(in browser, HTML5)
Click here to listen with your own player(launches your MP3 player)

EPML Flight Activity (Flightaware)

Listeners: 1 out of 1114 total

Mielec Info: 119.105

EPPO Twr/App/FIS (Archives)
Poznan, Poland

Feed Status: UP
Listen in your browser - HTML5 player(in browser, HTML5)
Click here to listen with your own player(launches your MP3 player)

EPPO 261230Z 34007KT 9999 BKN030 16/09 Q1033

EPPO Flight Activity (Flightaware)

Listeners: 0 out of 1114 total

Poznan Approach: 129.025
Poznan Approach: 127.225
Poznan FIS: 126.300
Poznan Tower: 119.975

EPRZ Del/Twr/EPWW Radar (Archives)
Jasionka, Poland

Feed Status: UP
Listen in your browser - HTML5 player(in browser, HTML5)
Click here to listen with your own player(launches your MP3 player)

EPRZ 261230Z 34007KT 310V010 9999 BKN024CB 12/09 Q1026 RETS

EPRZ Flight Activity (Flightaware)

Listeners: 2 out of 1114 total

EPWW Radar: 134.175
EPWW Radar: 120.950
Rzeszow Delivery: 121.800
Rzeszow Tower: 126.800

EPWA Approach #1 (Archives)
Warsaw, Poland

Feed Status: UP
Listen in your browser - HTML5 player(in browser, HTML5)
Click here to listen with your own player(launches your MP3 player)

EPWA 261230Z 35010KT 9999 SCT032 17/09 Q1029 NOSIG

EPWA Flight Activity (Flightaware)

Listeners: 6 out of 1114 total

Warsaw Approach: 128.800

EPWA Approach #2 (Archives)
Warsaw, Poland

Feed Status: UP
Listen in your browser - HTML5 player(in browser, HTML5)
Click here to listen with your own player(launches your MP3 player)

EPWA 261230Z 35010KT 9999 SCT032 17/09 Q1029 NOSIG

EPWA Flight Activity (Flightaware)

Listeners: 0 out of 1114 total

Warsaw Approach: 125.050

EPWA Clearance Delivery (Archives)
Warsaw, Poland

Feed Status: UP
Listen in your browser - HTML5 player(in browser, HTML5)
Click here to listen with your own player(launches your MP3 player)

EPWA 261230Z 35010KT 9999 SCT032 17/09 Q1029 NOSIG

EPWA Flight Activity (Flightaware)

Listeners: 0 out of 1114 total

Warsaw Clearance Delivery: 121.600

EPWA Director (Archives)
Warsaw, Poland

Feed Status: UP
Listen in your browser - HTML5 player(in browser, HTML5)
Click here to listen with your own player(launches your MP3 player)

EPWA 261230Z 35010KT 9999 SCT032 17/09 Q1029 NOSIG

EPWA Flight Activity (Flightaware)

Listeners: 0 out of 1114 total

Warsaw Director: 129.375

EPWA Ground (Archives)
Warsaw, Poland

Feed Status: UP
Listen in your browser - HTML5 player(in browser, HTML5)
Click here to listen with your own player(launches your MP3 player)

EPWA 261230Z 35010KT 9999 SCT032 17/09 Q1029 NOSIG

EPWA Flight Activity (Flightaware)

Listeners: 0 out of 1114 total

Warsaw Ground: 121.900

EPWA Tower #1 (Archives)
Warsaw, Poland

Feed Status: UP
Listen in your browser - HTML5 player(in browser, HTML5)
Click here to listen with your own player(launches your MP3 player)

EPWA 261230Z 35010KT 9999 SCT032 17/09 Q1029 NOSIG

EPWA Flight Activity (Flightaware)

Listeners: 4 out of 1114 total

Warsaw Tower: 118.300

EPWA Tower #2 (Archives)
Warsaw, Poland

Feed Status: UP
Listen in your browser - HTML5 player(in browser, HTML5)
Click here to listen with your own player(launches your MP3 player)

EPWA 261230Z 35010KT 9999 SCT032 17/09 Q1029 NOSIG

EPWA Flight Activity (Flightaware)

Listeners: 0 out of 1114 total

Warsaw Tower: 118.300

EPWR Twr/App (Archives)
Wroclaw, Poland

Feed Status: UP
Listen in your browser - HTML5 player(in browser, HTML5)
Click here to listen with your own player(launches your MP3 player)

EPPO 261230Z 34007KT 9999 BKN030 16/09 Q1033

EPPO Flight Activity (Flightaware)

Listeners: 4 out of 1114 total

Poznan Approach (South): 127.225

EPRZ Del/Twr/EPWW Radar (Archives)
Jasionka, Poland

Feed Status: UP
Listen in your browser - HTML5 player(in browser, HTML5)
Click here to listen with your own player(launches your MP3 player)

EPRZ 261230Z 34007KT 310V010 9999 BKN024CB 12/09 Q1026 RETS

EPRZ Flight Activity (Flightaware)

Listeners: 2 out of 1114 total

EPWW Radar: 134.175
EPWW Radar: 120.950
Rzeszow Delivery: 121.800
Rzeszow Tower: 126.800

ESDF Gnd/Twr (Archives)
Ronneby, Sweden

Feed Status: UP
Listen in your browser - HTML5 player(in browser, HTML5)
Click here to listen with your own player(launches your MP3 player)

ESDF 261250Z 18010KT CAVOK 17/09 Q1034

ESDF Flight Activity (Flightaware)

Listeners: 0 out of 1114 total

Ronneby Ground: 121.850
Ronneby Tower: 119.200

ESDF Ronneby Control (Archives)
Ronneby, Sweden

Feed Status: UP
Listen in your browser - HTML5 player(in browser, HTML5)
Click here to listen with your own player(launches your MP3 player)

ESDF 261250Z 18010KT CAVOK 17/09 Q1034

ESDF Flight Activity (Flightaware)

Listeners: 1 out of 1114 total

Ronneby Control: 128.450

ESMQ Tower (Archives)
Kalmar, Sweden

Feed Status: UP
Listen in your browser - HTML5 player(in browser, HTML5)
Click here to listen with your own player(launches your MP3 player)

ESMQ 261250Z 17008KT CAVOK 18/09 Q1034

ESMQ Flight Activity (Flightaware)

Listeners: 0 out of 1114 total

Kalmar Tower: 130.805

ESMS Radar (Archives)
Svedala, Sweden

Feed Status: UP
Listen in your browser - HTML5 player(in browser, HTML5)
Click here to listen with your own player(launches your MP3 player)

ESMS 261250Z 21009KT CAVOK 18/08 Q1035

ESMS Flight Activity (Flightaware)

Listeners: 2 out of 1114 total

Sweden Control (Sector L, Malmo): 134.980

ESMS Tower (Archives)
Svedala, Sweden

Feed Status: UP
Listen in your browser - HTML5 player(in browser, HTML5)
Click here to listen with your own player(launches your MP3 player)

ESMS 261250Z 21009KT CAVOK 18/08 Q1035

ESMS Flight Activity (Flightaware)

Listeners: 1 out of 1114 total

Malmo Tower: 118.800

ESOW Twr/CTAF/Control (Archives)
Stockholm, Sweden

Feed Status: UP
Listen in your browser - HTML5 player(in browser, HTML5)
Click here to listen with your own player(launches your MP3 player)

ESOW 261250Z 18010KT 9999 SCT077TCU 22/07 Q1031

ESOW Flight Activity (Flightaware)

Listeners: 2 out of 1114 total

Arlanda Approach: 123.750
Arlanda Approach: 126.655
Arlanda Approach: 130.325
Arlanda Departure: 124.100
Arlanda Tower: 118.505
Arlanda Tower: 128.725
Enkoping/Langtora: 123.525
Eskilstuna: 126.850
Frolunda: 123.400
Johannisberg CTAF: 123.650
Ska Edeby: 123.350
Stockholm Control: 120.155
Stockholm Control: 118.405
Stockholm Control: 118.280
Sweden Control: 133.260
Sweden Control: 129.175
Sweden Control: 131.130
Uppsala Tower: 119.200
Uppsala/Sundbro: 123.350
Vasteras Control: 125.955
Vasteras Tower: 130.600

ESPA Twr/Control (Archives)
Lulea, Sweden

Feed Status: UP
Listen in your browser - HTML5 player(in browser, HTML5)
Click here to listen with your own player(launches your MP3 player)

ESPA 261250Z 15009KT CAVOK 16/06 Q1028

ESPA Flight Activity (Flightaware)

Listeners: 1 out of 1114 total

Emergency/Guard: 121.500
Kallax Control: 125.450
Kallax Tower: 128.200
Sweden Control North: 131.050

ESSG Misc (Archives)
Ludvika, Sweden

Feed Status: UP
Listen in your browser - HTML5 player(in browser, HTML5)
Click here to listen with your own player(launches your MP3 player)

ESSG Flight Activity (Flightaware)

Listeners: 2 out of 1114 total

Avesta, Gagnef, Siljansnas: 123.550
Borlange Tower: 127.300
Dala-Jarna: 123.350
Emergency/Guard: 121.500
Karlstad: 119.450
Koping, Arboga, Borberg: 123.150
Ludvika CTAF: 122.100
Mora: 129.850
Orebro: 120.275
Orsa: 123.400
Soaring Freq: 123.500
Sweden Control: 131.125
Sweden Control: 129.175
Sweden Control: 118.200
Sweden Control: 132.150

ESVQ CTAF (Archives)
Koping, Sweden

Feed Status: UP
Listen in your browser - HTML5 player(in browser, HTML5)
Click here to listen with your own player(launches your MP3 player)

ESVQ Flight Activity (Flightaware)

Listeners: 0 out of 1114 total

Koping CTAF: 123.150

EVLA AFIS (Archives)
Liepaja, Latvia

Feed Status: UP
Listen in your browser - HTML5 player(in browser, HTML5)
Click here to listen with your own player(launches your MP3 player)

EVLA 261250Z AUTO 33009KT 290V350 9999 NCD 20/05 Q1031

EVLA Flight Activity (Flightaware)

Listeners: 0 out of 1114 total

Liepaja AFIS: 129.400

EVRA Approach (Archives)
Riga, Latvia

Feed Status: UP
Listen in your browser - HTML5 player(in browser, HTML5)
Click here to listen with your own player(launches your MP3 player)

EVLA 261250Z AUTO 33009KT 290V350 9999 NCD 20/05 Q1031

EVLA Flight Activity (Flightaware)

Listeners: 0 out of 1114 total

Riga Approach: 129.925

EVRA Approach (Archives)
Riga, Latvia

Feed Status: UP
Listen in your browser - HTML5 player(in browser, HTML5)
Click here to listen with your own player(launches your MP3 player)

EVRA 261250Z 34012KT CAVOK 18/05 Q1031 NOSIG

EVRA Flight Activity (Flightaware)

Listeners: 0 out of 1114 total

Riga Approach: 129.925

EVRA CTAF (Archives)
Riga, Latvia

Feed Status: UP
Listen in your browser - HTML5 player(in browser, HTML5)
Click here to listen with your own player(launches your MP3 player)

EVRA 261250Z 34012KT CAVOK 18/05 Q1031 NOSIG

EVRA Flight Activity (Flightaware)

Listeners: 1 out of 1114 total

Riga Approach (evenings): 134.850
Riga CTAF: 123.950

EVRA FIC (Archives)
Riga, Latvia

Feed Status: UP
Listen in your browser - HTML5 player(in browser, HTML5)
Click here to listen with your own player(launches your MP3 player)

EVLA 261250Z AUTO 33009KT 290V350 9999 NCD 20/05 Q1031

EVLA Flight Activity (Flightaware)

Listeners: 0 out of 1114 total

Riga FIC: 120.225

EVRA FIC (Archives)
Riga, Latvia

Feed Status: UP
Listen in your browser - HTML5 player(in browser, HTML5)
Click here to listen with your own player(launches your MP3 player)

EVRA 261250Z 34012KT CAVOK 18/05 Q1031 NOSIG

EVRA Flight Activity (Flightaware)

Listeners: 0 out of 1114 total

Riga FIC: 120.225

EVRA Tower/Guard (Archives)
Riga, Latvia

Feed Status: UP
Listen in your browser - HTML5 player(in browser, HTML5)
Click here to listen with your own player(launches your MP3 player)

EVRA 261250Z 34012KT CAVOK 18/05 Q1031 NOSIG

EVRA Flight Activity (Flightaware)

Listeners: 0 out of 1114 total

Emergency/Guard: 121.500
Riga Tower: 118.100

EYPA Tower (Archives)
Palanga, Lithuania

Feed Status: UP
Listen in your browser - HTML5 player(in browser, HTML5)
Click here to listen with your own player(launches your MP3 player)

EVLA 261250Z AUTO 33009KT 290V350 9999 NCD 20/05 Q1031

EVLA Flight Activity (Flightaware)

Listeners: 1 out of 1114 total

Palanga Tower: 124.300

EYVI Twr/App/Misc (Archives)
Vilnius, Lithuania

Feed Status: UP
Listen in your browser - HTML5 player(in browser, HTML5)
Click here to listen with your own player(launches your MP3 player)

EYVI 261250Z 02008KT 310V060 9999 VCSH SCT045CB BKN099 18/07 Q1028 NOSIG

EYVI Flight Activity (Flightaware)

Listeners: 0 out of 1114 total

Emergency / GUARD: 121.500
FlyLAL, AirBaltic transit services: 131.900
FlyLAL, AirBaltic transit services: 131.600
FlyLAL, AirBaltic transit services: 131.500
Kaunas Approach (EYKA): 124.200
Vilnius Approach: 120.700
Vilnius Control: 132.275
Vilnius Control: 133.425
Vilnius Control: 133.300
Vilnius FIS: 123.850
Vilnius Tower: 118.200
Zokniai A/G (mil): 122.775

EYVP CTAF (Archives)
Paluknys, Lithuania

Feed Status: UP
Listen in your browser - HTML5 player(in browser, HTML5)
Click here to listen with your own player(launches your MP3 player)

EYVP Flight Activity (Flightaware)

Listeners: 0 out of 1114 total

EYVP Paluknis CTAF: 119.100

LBLS Tower/FIC
Lesnovo, Bulgaria

Feed Status: DOWN
Offline since: 2020-05-10 11:57:06 UTC

LBSF 261230Z 27008KT 9999 FEW034TCU BKN041 12/08 Q1020 TEMPO 5000 SHRA

Lesnovo FIC: 130.600
Lesnovo Tower: 122.250

LBPD Tower (Archives)
Plovdiv, Bulgaria

Feed Status: UP
Listen in your browser - HTML5 player(in browser, HTML5)
Click here to listen with your own player(launches your MP3 player)

LBSF 261230Z 27008KT 9999 FEW034TCU BKN041 12/08 Q1020 TEMPO 5000 SHRA

LBSF Flight Activity (Flightaware)

Listeners: 0 out of 1114 total

Plovdiv Tower: 125.500
Plovdiv Tower: 133.600

LBSF ATIS (Archives)
Sofia, Bulgaria

Feed Status: UP
Listen in your browser - HTML5 player(in browser, HTML5)
Click here to listen with your own player(launches your MP3 player)

LBSF 261230Z 27008KT 9999 FEW034TCU BKN041 12/08 Q1020 TEMPO 5000 SHRA

LBSF Flight Activity (Flightaware)

Listeners: 0 out of 1114 total

Sofia ATIS: 126.680

LBSF Sofia Control East (Archives)
Sofia, Bulgaria

Feed Status: UP
Listen in your browser - HTML5 player(in browser, HTML5)
Click here to listen with your own player(launches your MP3 player)

LBSF 261230Z 27008KT 9999 FEW034TCU BKN041 12/08 Q1020 TEMPO 5000 SHRA

LBSF Flight Activity (Flightaware)

Listeners: 1 out of 1114 total

Sofia Control (East/Middle Sector): 129.100
Sofia Control (Varna Sector): 134.700

LBSF Twr/App #1 (Archives)
Sofia, Bulgaria

Feed Status: UP
Listen in your browser - HTML5 player(in browser, HTML5)
Click here to listen with your own player(launches your MP3 player)

LBSF 261230Z 27008KT 9999 FEW034TCU BKN041 12/08 Q1020 TEMPO 5000 SHRA

LBSF Flight Activity (Flightaware)

Listeners: 2 out of 1114 total

Sofia Approach: 123.700
Sofia Approach: 129.900
Sofia Tower: 118.100
Sofia Tower: 120.200

LBSF Twr/App #2 (Archives)
Sofia, Bulgaria

Feed Status: UP
Listen in your browser - HTML5 player(in browser, HTML5)
Click here to listen with your own player(launches your MP3 player)

LBSF 261230Z 27008KT 9999 FEW034TCU BKN041 12/08 Q1020 TEMPO 5000 SHRA

LBSF Flight Activity (Flightaware)

Listeners: 1 out of 1114 total

Sofia Approach: 123.700
Sofia Tower: 118.100

LBWN Tower/Approach (Archives)
Varna, Bulgaria

Feed Status: UP
Listen in your browser - HTML5 player(in browser, HTML5)
Click here to listen with your own player(launches your MP3 player)

LBWN 261230Z 01006KT 9999 -RA FEW029 SCT036 15/10 Q1019 NOSIG

LBWN Flight Activity (Flightaware)

Listeners: 0 out of 1114 total

Varna Approach: 121.000
Varna Tower: 119.500

Bordeaux Control (Archives)
Bordeaux, France

Feed Status: UP
Listen in your browser - HTML5 player(in browser, HTML5)
Click here to listen with your own player(launches your MP3 player)

LFBD 261230Z AUTO 02011KT CAVOK 25/10 Q1028 NOSIG

LFBD Flight Activity (Flightaware)

Listeners: 1 out of 1114 total

Air to Air: 123.450
Bordeaux Control BN FL<300: 127.675
Bordeaux Control L3 FL>300: 134.250
Bordeaux Control R2 FL>300: 133.575
Emergency/Guard: 121.500

LFBD Aquitane Approach (Archives)
Bordeaux, France

Feed Status: UP
Listen in your browser - HTML5 player(in browser, HTML5)
Click here to listen with your own player(launches your MP3 player)

LFBD 261230Z AUTO 02011KT CAVOK 25/10 Q1028 NOSIG

LFBD Flight Activity (Flightaware)

Listeners: 0 out of 1114 total

Aquitane Approach: 129.875

LFBD Bordeaux Control Sector X1 (Archives)
Bordeaux, France

Feed Status: UP
Listen in your browser - HTML5 player(in browser, HTML5)
Click here to listen with your own player(launches your MP3 player)

LFBD 261230Z AUTO 02011KT CAVOK 25/10 Q1028 NOSIG

LFBD Flight Activity (Flightaware)

Listeners: 0 out of 1114 total

Bordeaux Control (Sector X1): 118.425

LFBD Ground (Archives)
Bordeaux, France

Feed Status: UP
Listen in your browser - HTML5 player(in browser, HTML5)
Click here to listen with your own player(launches your MP3 player)

LFBD 261230Z AUTO 02011KT CAVOK 25/10 Q1028 NOSIG

LFBD Flight Activity (Flightaware)

Listeners: 1 out of 1114 total

Merignac Ground: 121.900

LFBD Tower (Archives)
Bordeaux, France

Feed Status: UP
Listen in your browser - HTML5 player(in browser, HTML5)
Click here to listen with your own player(launches your MP3 player)

LFBD 261230Z AUTO 02011KT CAVOK 25/10 Q1028 NOSIG

LFBD Flight Activity (Flightaware)

Listeners: 4 out of 1114 total

Merignac Tower: 118.300

LFBU/LFBL Tower (Archives)
Limoges, France

Feed Status: UP
Listen in your browser - HTML5 player(in browser, HTML5)
Click here to listen with your own player(launches your MP3 player)

LFBU 261230Z AUTO 05016KT 020V080 CAVOK 24/09 Q1029

LFBU Flight Activity (Flightaware)

Listeners: 0 out of 1114 total

LFBL Limoges Tower: 124.055
LFBU Angouleme Tower: 123.150
Medoc: 124.325

Bordeaux Control (Archives)
Angouleme, France

Feed Status: UP
Listen in your browser - HTML5 player(in browser, HTML5)
Click here to listen with your own player(launches your MP3 player)

LFBD 261230Z AUTO 02011KT CAVOK 25/10 Q1028 NOSIG

LFBD Flight Activity (Flightaware)

Listeners: 1 out of 1114 total

Air to Air: 123.450
Bordeaux Control BN FL<300: 127.675
Bordeaux Control L3 FL>300: 134.250
Bordeaux Control R2 FL>300: 133.575
Emergency/Guard: 121.500

LFBU/LFBL Tower (Archives)
Angouleme, France

Feed Status: UP
Listen in your browser - HTML5 player(in browser, HTML5)
Click here to listen with your own player(launches your MP3 player)

LFBU 261230Z AUTO 05016KT 020V080 CAVOK 24/09 Q1029

LFBU Flight Activity (Flightaware)

Listeners: 0 out of 1114 total

LFBL Limoges Tower: 124.055
LFBU Angouleme Tower: 123.150
Medoc: 124.325

LFLL Tower (Archives)
Lyon, France

Feed Status: UP
Listen in your browser - HTML5 player(in browser, HTML5)
Click here to listen with your own player(launches your MP3 player)

LFLL 261230Z AUTO 34010KT 320V020 CAVOK 23/10 Q1028 NOSIG

LFLL Flight Activity (Flightaware)

Listeners: 0 out of 1114 total

Lyon Tower: 120.450

Lyon FIS (Archives)
Lyon, France

Feed Status: UP
Listen in your browser - HTML5 player(in browser, HTML5)
Click here to listen with your own player(launches your MP3 player)

LFLL 261230Z AUTO 34010KT 320V020 CAVOK 23/10 Q1028 NOSIG

LFLL Flight Activity (Flightaware)

Listeners: 0 out of 1114 total

Lyon FIS: 135.200

LFLP Twr/LFLB App (Archives)
Annecy, France

Feed Status: UP
Listen in your browser - HTML5 player(in browser, HTML5)
Click here to listen with your own player(launches your MP3 player)

LFLP 261230Z AUTO 04010KT CAVOK 22/09 Q1028

LFLP Flight Activity (Flightaware)

Listeners: 1 out of 1114 total

Annecy Tower: 118.200
Chambery Approach: 121.205
Chambery Info: 123.700

LFLY Tower (Archives)
Bron, France

Feed Status: UP
Listen in your browser - HTML5 player(in browser, HTML5)
Click here to listen with your own player(launches your MP3 player)

LFLY 261230Z AUTO 35010KT 300V020 CAVOK 24/10 Q1028

LFLY Flight Activity (Flightaware)

Listeners: 0 out of 1114 total

Lyon-Bron Tower: 118.100

Lyon FIS (Archives)
Bron, France

Feed Status: UP
Listen in your browser - HTML5 player(in browser, HTML5)
Click here to listen with your own player(launches your MP3 player)

LFLL 261230Z AUTO 34010KT 320V020 CAVOK 23/10 Q1028 NOSIG

LFLL Flight Activity (Flightaware)

Listeners: 0 out of 1114 total

Lyon FIS: 135.200

LFMD Ground/Tower (Archives)
Cannes, France

Feed Status: UP
Listen in your browser - HTML5 player(in browser, HTML5)
Click here to listen with your own player(launches your MP3 player)

LFMD 261230Z AUTO 16006KT 130V210 CAVOK 26/13 Q1024

LFMD Flight Activity (Flightaware)

Listeners: 0 out of 1114 total

Cannes Ground: 121.800
Cannes Tower: 118.625

LFMN Approach (Archives)
Nice, France

Feed Status: UP
Listen in your browser - HTML5 player(in browser, HTML5)
Click here to listen with your own player(launches your MP3 player)

LFMN 261230Z AUTO 17005KT CAVOK 24/13 Q1025 NOSIG

LFMN Flight Activity (Flightaware)

Listeners: 0 out of 1114 total

Nice Approach: 124.175

LFMN Control (High) (Archives)
Nice, France

Feed Status: UP
Listen in your browser - HTML5 player(in browser, HTML5)
Click here to listen with your own player(launches your MP3 player)

LFMN 261230Z AUTO 17005KT CAVOK 24/13 Q1025 NOSIG

LFMN Flight Activity (Flightaware)

Listeners: 0 out of 1114 total

Marseille Control Sector K1 (FL245-FL305): 126.780

LFMN FIS/Approach (Archives)
Nice, France

Feed Status: UP
Listen in your browser - HTML5 player(in browser, HTML5)
Click here to listen with your own player(launches your MP3 player)

LFMN 261230Z AUTO 17005KT CAVOK 24/13 Q1025 NOSIG

LFMN Flight Activity (Flightaware)

Listeners: 0 out of 1114 total

Nice FIS/Approach (TMA4 NICE 2500ft - FL115): 120.850

LFMN Ground/Tower (Archives)
Nice, France

Feed Status: UP
Listen in your browser - HTML5 player(in browser, HTML5)
Click here to listen with your own player(launches your MP3 player)

LFMN 261230Z AUTO 17005KT CAVOK 24/13 Q1025 NOSIG

LFMN Flight Activity (Flightaware)

Listeners: 0 out of 1114 total

Nice Ground: 121.700
Nice Tower: 118.700

LFPG Tower (Archives)
Paris, France

Feed Status: UP
Listen in your browser - HTML5 player(in browser, HTML5)
Click here to listen with your own player(launches your MP3 player)

LFPG 261230Z AUTO 05010KT 360V110 CAVOK 24/07 Q1034 NOSIG

LFPG Flight Activity (Flightaware)

Listeners: 25 out of 1114 total

De Gaulle Tower: 120.900
De Gaulle Tower: 119.250

LFPO Approach (Archives)
Paris, France

Feed Status: UP
Listen in your browser - HTML5 player(in browser, HTML5)
Click here to listen with your own player(launches your MP3 player)

LFPO 261230Z AUTO 04011KT 360V070 CAVOK 24/09 Q1034 NOSIG

LFPO Flight Activity (Flightaware)

Listeners: 2 out of 1114 total

Orly Approach: 124.450
Orly Approach: 118.850
Orly Approach: 120.850
Orly Approach: 123.875

LFPO Departure (Archives)
Paris, France

Feed Status: UP
Listen in your browser - HTML5 player(in browser, HTML5)
Click here to listen with your own player(launches your MP3 player)

LFPO 261230Z AUTO 04011KT 360V070 CAVOK 24/09 Q1034 NOSIG

LFPO Flight Activity (Flightaware)

Listeners: 3 out of 1114 total

Orly Departure: 127.750

LFPO Tower (Archives)
Paris, France

Feed Status: UP
Listen in your browser - HTML5 player(in browser, HTML5)
Click here to listen with your own player(launches your MP3 player)

LFPO 261230Z AUTO 04011KT 360V070 CAVOK 24/09 Q1034 NOSIG

LFPO Flight Activity (Flightaware)

Listeners: 3 out of 1114 total

Orly Tower: 120.500
Orly Tower: 118.700

LFSB Tower (Archives)
Basel, Switzerland

Feed Status: UP
Listen in your browser - HTML5 player(in browser, HTML5)
Click here to listen with your own player(launches your MP3 player)

LFSB 261230Z AUTO 36010KT 320V040 9999 BKN052/// 21/10 Q1031 NOSIG

LFSB Flight Activity (Flightaware)

Listeners: 2 out of 1114 total

Mulhouse Tower: 118.300

LGAV App/Radar (Archives)
Athens, Greece

Feed Status: UP
Listen in your browser - HTML5 player(in browser, HTML5)
Click here to listen with your own player(launches your MP3 player)

LGAV 261250Z 36010KT 9999 FEW018TCU BKN035 16/10 Q1018 NOSIG

LGAV Flight Activity (Flightaware)

Listeners: 1 out of 1114 total

Athens Approach: 132.975
Athens Information: 130.925
Athens Information: 119.750
Athens Radar (Kerkira-Kefalinia-Paleohora Sectors FL460-FL345): 134.325
Athens Radar (Milos/Sitia Sectors FL460-FL345): 125.200
Athens Radar (Paleohora /Kerkira Sectors FL460-FL345): 133.725
Athens Radar (Paleohora Sector FL460-FL345): 124.625
Athens Radar (Rhodos/Kavos Sector FL460-FL345): 133.325
Emergency/Guard: 121.500
Makedonia Radar (Thessaloniki/Skopelos/Limnos/Kavala Sectors FL460-FL345): 133.575

LGAV Clearance Delivery
Athens, Greece

Feed Status: DOWN
Offline since: 2020-05-26 08:39:05 UTC

LGAV 261250Z 36010KT 9999 FEW018TCU BKN035 16/10 Q1018 NOSIG

Athens Clearance Delivery: 118.675

LGAV Director
Athens, Greece

Feed Status: DOWN
Offline since: 2020-05-26 09:12:22 UTC

LGAV 261250Z 36010KT 9999 FEW018TCU BKN035 16/10 Q1018 NOSIG

Athens Director: 121.400

LGAV Ground (North)
Athens, Greece

Feed Status: DOWN
Offline since: 2020-05-26 09:05:40 UTC

LGAV 261250Z 36010KT 9999 FEW018TCU BKN035 16/10 Q1018 NOSIG

Athens Ground (North): 121.750

LGAV Ground (South)
Athens, Greece

Feed Status: DOWN
Offline since: 2020-05-26 09:05:40 UTC

LGAV 261250Z 36010KT 9999 FEW018TCU BKN035 16/10 Q1018 NOSIG

Athens Ground (South): 121.950

LGAV Tower (Rwy 3L/21R)
Athens, Greece

Feed Status: DOWN
Offline since: 2020-05-25 13:09:39 UTC

LGAV 261250Z 36010KT 9999 FEW018TCU BKN035 16/10 Q1018 NOSIG

Athens Tower (Rwy 03L/21R): 136.275

LGAV Tower (Rwy 3R/21L)
Athens, Greece

Feed Status: DOWN
Offline since: 2020-05-26 09:03:22 UTC

LGAV 261250Z 36010KT 9999 FEW018TCU BKN035 16/10 Q1018 NOSIG

Athens Tower (Rwy 03R/21L): 118.625

LGIR Approach (Archives)
Iraklion, Greece

Feed Status: UP
Listen in your browser - HTML5 player(in browser, HTML5)
Click here to listen with your own player(launches your MP3 player)

LGIR 261250Z 33008KT 9999 FEW018 BKN025 23/15 Q1016 NOSIG

LGIR Flight Activity (Flightaware)

Listeners: 0 out of 1114 total

Iraklion Radar: 123.975

LGIR Ground (Archives)
Iraklion, Greece

Feed Status: UP
Listen in your browser - HTML5 player(in browser, HTML5)
Click here to listen with your own player(launches your MP3 player)

LGIR 261250Z 33008KT 9999 FEW018 BKN025 23/15 Q1016 NOSIG

LGIR Flight Activity (Flightaware)

Listeners: 0 out of 1114 total

Heraklion Ground: 121.700

LGIR Tower (Archives)
Iraklion, Greece

Feed Status: UP
Listen in your browser - HTML5 player(in browser, HTML5)
Click here to listen with your own player(launches your MP3 player)

LGIR 261250Z 33008KT 9999 FEW018 BKN025 23/15 Q1016 NOSIG

LGIR Flight Activity (Flightaware)

Listeners: 1 out of 1114 total

Heraklion Tower: 120.850

LHBP Approach (Archives)
Budapest, Hungary

Feed Status: UP
Listen in your browser - HTML5 player(in browser, HTML5)
Click here to listen with your own player(launches your MP3 player)

LHBP 261230Z 34009KT 300V360 9999 VCSH FEW043CB SCT060 SCT180 18/07 Q1025 NOSIG

LHBP Flight Activity (Flightaware)

Listeners: 5 out of 1114 total

Budapest Approach: 122.975
Budapest Approach (Upper): 123.860

LHBP Approach (Director) (Archives)
Budapest, Hungary

Feed Status: UP
Listen in your browser - HTML5 player(in browser, HTML5)
Click here to listen with your own player(launches your MP3 player)

LHBP 261230Z 34009KT 300V360 9999 VCSH FEW043CB SCT060 SCT180 18/07 Q1025 NOSIG

LHBP Flight Activity (Flightaware)

Listeners: 0 out of 1114 total

Budapest Director: 119.510

LHBP ATIS (Archives)
Budapest, Hungary

Feed Status: UP
Listen in your browser - HTML5 player(in browser, HTML5)
Click here to listen with your own player(launches your MP3 player)

LHBP 261230Z 34009KT 300V360 9999 VCSH FEW043CB SCT060 SCT180 18/07 Q1025 NOSIG

LHBP Flight Activity (Flightaware)

Listeners: 0 out of 1114 total

Budapest ATIS: 132.380

LHBP Clearance Delivery (Archives)
Budapest, Hungary

Feed Status: UP
Listen in your browser - HTML5 player(in browser, HTML5)
Click here to listen with your own player(launches your MP3 player)

LHBP 261230Z 34009KT 300V360 9999 VCSH FEW043CB SCT060 SCT180 18/07 Q1025 NOSIG

LHBP Flight Activity (Flightaware)

Listeners: 0 out of 1114 total

Budapest Clearance Delivery: 134.540

LHBP Ground (Archives)
Budapest, Hungary

Feed Status: UP
Listen in your browser - HTML5 player(in browser, HTML5)
Click here to listen with your own player(launches your MP3 player)

LHBP 261230Z 34009KT 300V360 9999 VCSH FEW043CB SCT060 SCT180 18/07 Q1025 NOSIG

LHBP Flight Activity (Flightaware)

Listeners: 1 out of 1114 total

Budapest Ground: 121.910

LHBP Info (Archives)
Budapest, Hungary

Feed Status: UP
Listen in your browser - HTML5 player(in browser, HTML5)
Click here to listen with your own player(launches your MP3 player)

LHBP 261230Z 34009KT 300V360 9999 VCSH FEW043CB SCT060 SCT180 18/07 Q1025 NOSIG

LHBP Flight Activity (Flightaware)

Listeners: 3 out of 1114 total

Budapest Info: 119.350

LHBP Tower (Archives)
Budapest, Hungary

Feed Status: UP
Listen in your browser - HTML5 player(in browser, HTML5)
Click here to listen with your own player(launches your MP3 player)

LHBP 261230Z 34009KT 300V360 9999 VCSH FEW043CB SCT060 SCT180 18/07 Q1025 NOSIG

LHBP Flight Activity (Flightaware)

Listeners: 5 out of 1114 total

Budapest Tower: 118.100

LHBP Twr/Info (Archives)
Budapest, Hungary

Feed Status: UP
Listen in your browser - HTML5 player(in browser, HTML5)
Click here to listen with your own player(launches your MP3 player)

LHBP 261230Z 34009KT 300V360 9999 VCSH FEW043CB SCT060 SCT180 18/07 Q1025 NOSIG

LHBP Flight Activity (Flightaware)

Listeners: 1 out of 1114 total

Budapest Info: 119.350
Budapest Tower: 118.100

LHCC Control (East/West) (Archives)
Budapest, Hungary

Feed Status: UP
Listen in your browser - HTML5 player(in browser, HTML5)
Click here to listen with your own player(launches your MP3 player)

LHBP 261230Z 34009KT 300V360 9999 VCSH FEW043CB SCT060 SCT180 18/07 Q1025 NOSIG

LHBP Flight Activity (Flightaware)

Listeners: 1 out of 1114 total

Budapest Control (East Low Sector): 120.375
Budapest Control (West Low Sector): 133.200

LHDC Info/Tower (Archives)
Debrecen, Hungary

Feed Status: UP
Listen in your browser - HTML5 player(in browser, HTML5)
Click here to listen with your own player(launches your MP3 player)

LHDC 261215Z AUTO 01011KT 330V050 9999 FEW048 SCT056 BKN108 //////TCU 19/08 Q1023

LHDC Flight Activity (Flightaware)

Listeners: 1 out of 1114 total

Debrecen Info/Tower: 125.900

LHEM CTAF (Archives)
Esztergom, Hungary

Feed Status: UP
Listen in your browser - HTML5 player(in browser, HTML5)
Click here to listen with your own player(launches your MP3 player)

LHEM Flight Activity (Flightaware)

Listeners: 0 out of 1114 total

Esztergom CTAF: 126.850

LHPR Info/AFIS (Archives)
Gyor, Hungary

Feed Status: UP
Listen in your browser - HTML5 player(in browser, HTML5)
Click here to listen with your own player(launches your MP3 player)

LHPR 261215Z AUTO 33012KT 290V030 CAVOK 16/09 Q1027 NOSIG

LHPR Flight Activity (Flightaware)

Listeners: 1 out of 1114 total

Gyor AFIS: 129.910

LHUD CTAF/Info/AFIS (Archives)
Szeged, Hungary

Feed Status: UP
Listen in your browser - HTML5 player(in browser, HTML5)
Click here to listen with your own player(launches your MP3 player)

LHUD 032345Z 35004KT CAVOK 18/13 Q1019

LHUD Flight Activity (Flightaware)

Listeners: 0 out of 1114 total

Szeged CTAF/Info/AFIS: 122.810

LJLJ Info (Archives)
Ljubljana, Slovenia

Feed Status: UP
Listen in your browser - HTML5 player(in browser, HTML5)
Click here to listen with your own player(launches your MP3 player)

LJLJ 261230Z 35004KT 320V040 9999 FEW070 SCT090 19/04 Q1027 NOSIG

LJLJ Flight Activity (Flightaware)

Listeners: 2 out of 1114 total

Ljubljana Info: 118.475

LJLJ Radar (Archives)
Ljubljana, Slovenia

Feed Status: UP
Listen in your browser - HTML5 player(in browser, HTML5)
Click here to listen with your own player(launches your MP3 player)

LJLJ 261230Z 35004KT 320V040 9999 FEW070 SCT090 19/04 Q1027 NOSIG

LJLJ Flight Activity (Flightaware)

Listeners: 0 out of 1114 total

Ljubljana Approach: 135.275

LJLJ Tower (Archives)
Ljubljana, Slovenia

Feed Status: UP
Listen in your browser - HTML5 player(in browser, HTML5)
Click here to listen with your own player(launches your MP3 player)

LJLJ 261230Z 35004KT 320V040 9999 FEW070 SCT090 19/04 Q1027 NOSIG

LJLJ Flight Activity (Flightaware)

Listeners: 2 out of 1114 total

Ljubljana Tower: 118.000

LJMB Info/FSS/FIC
Maribor, Slovenia

Feed Status: DOWN
Offline since: 2020-03-04 08:39:39 UTC

LJMB 261230Z 01008KT 340V060 9999 FEW037TCU BKN070 17/08 Q1028

Ljubljana Information FSS/FIC (Maribor Area): 118.475

LJMB Tower/Approach
Maribor, Slovenia

Feed Status: DOWN
Offline since: 2020-03-05 21:16:39 UTC

LJMB 261230Z 01008KT 340V060 9999 FEW037TCU BKN070 17/08 Q1028

Maribor Tower/Approach: 119.200

LJMS CTAF (Archives)
Murska Sobota, Slovenia

Feed Status: UP
Listen in your browser - HTML5 player(in browser, HTML5)
Click here to listen with your own player(launches your MP3 player)

LJMS Flight Activity (Flightaware)

Listeners: 0 out of 1114 total

Murska Sobota Aerodrome Radio: 123.500

LJPZ Tower
Secovlje, Slovenia

Feed Status: DOWN
Offline since: 2020-05-25 19:02:40 UTC

LJPZ 261230Z 30009KT 9999 FEW040 SCT100 22/09 Q1026

Portoroz Tower: 124.875

LKKV Tower (Archives)
Karlovy Vary, Czech Republic

Feed Status: UP
Listen in your browser - HTML5 player(in browser, HTML5)
Click here to listen with your own player(launches your MP3 player)

LKKV 261230Z 34008KT 310V040 9999 FEW038 14/06 Q1033

LKKV Flight Activity (Flightaware)

Listeners: 0 out of 1114 total

Karlovy Vary Tower: 121.230

LKPM Tower (Archives)
Pribram, Czech Republic

Feed Status: UP
Listen in your browser - HTML5 player(in browser, HTML5)
Click here to listen with your own player(launches your MP3 player)

LKPM Flight Activity (Flightaware)

Listeners: 0 out of 1114 total

Pribram Tower: 118.750

LKAA FIR (High) (Archives)
Prague, Czech Republic

Feed Status: UP
Listen in your browser - HTML5 player(in browser, HTML5)
Click here to listen with your own player(launches your MP3 player)

LKAA Flight Activity (Flightaware)

Listeners: 2 out of 1114 total

LKAA FIR Sector West High / Praha Radar : 132.065

LKAA FIR (Low) (Archives)
Prague, Czech Republic

Feed Status: UP
Listen in your browser - HTML5 player(in browser, HTML5)
Click here to listen with your own player(launches your MP3 player)

LKAA Flight Activity (Flightaware)

Listeners: 0 out of 1114 total

LKAA FIR Sector West Low / Praha Radar: 120.275

LKPR Approach (Archives)
Prague, Czech Republic

Feed Status: UP
Listen in your browser - HTML5 player(in browser, HTML5)
Click here to listen with your own player(launches your MP3 player)

LKPR 261230Z 01011KT 9999 SCT043 15/05 Q1032 NOSIG

LKPR Flight Activity (Flightaware)

Listeners: 1 out of 1114 total

Prague Approach/Radar: 127.580

LKPR Clearance Del (Archives)
Prague, Czech Republic

Feed Status: UP
Listen in your browser - HTML5 player(in browser, HTML5)
Click here to listen with your own player(launches your MP3 player)

LKPR 261230Z 01011KT 9999 SCT043 15/05 Q1032 NOSIG

LKPR Flight Activity (Flightaware)

Listeners: 0 out of 1114 total

Prague/Ruzyne Clearance Delivery: 120.060

LKPR Director/Ruzyne Radar (Archives)
Prague, Czech Republic

Feed Status: UP
Listen in your browser - HTML5 player(in browser, HTML5)
Click here to listen with your own player(launches your MP3 player)

LKPR 261230Z 01011KT 9999 SCT043 15/05 Q1032 NOSIG

LKPR Flight Activity (Flightaware)

Listeners: 3 out of 1114 total

Prague Director/Ruzyne Radar: 119.010

LKPR Ground (Archives)
Prague, Czech Republic

Feed Status: UP
Listen in your browser - HTML5 player(in browser, HTML5)
Click here to listen with your own player(launches your MP3 player)

LKPR 261230Z 01011KT 9999 SCT043 15/05 Q1032 NOSIG

LKPR Flight Activity (Flightaware)

Listeners: 0 out of 1114 total

Prague/Ruzyne Ground: 121.910

LKPR Tower (Archives)
Prague, Czech Republic

Feed Status: UP
Listen in your browser - HTML5 player(in browser, HTML5)
Click here to listen with your own player(launches your MP3 player)

LKPR 261230Z 01011KT 9999 SCT043 15/05 Q1032 NOSIG

LKPR Flight Activity (Flightaware)

Listeners: 6 out of 1114 total

Prague/Ruzyne Tower: 134.560

LKTB Gnd/Twr/Radar (Archives)
Brno, Czech Republic

Feed Status: UP
Listen in your browser - HTML5 player(in browser, HTML5)
Click here to listen with your own player(launches your MP3 player)

LKTB 261242Z 03013G23KT 360V060 9999 -TSRA FEW017CB BKN032 12/07 Q1030 RMK REG QNH 1027

LKTB Flight Activity (Flightaware)

Listeners: 0 out of 1114 total

Brno Ground: 125.430
Brno Handling: 131.800
Brno Radar (Approach): 127.350
Brno Tower: 119.605

Santa Maria Control (Oceanic)
Santa Maria Island (Azores), Portugal

Feed Status: DOWN
Offline since: 2020-05-12 15:28:40 UTC

LPAZ 261230Z 13012KT 9000 FEW013 BKN018 21/17 Q1023

Emergency/Guard: 121.500
LPHR (Horta) Approach: 120.600
LPLA (Terceira) Approach: 135.000
LPLA (Terceira) Tower: 122.100
LPPD (Ponta Delgada) Approach: 119.400
Ponta Delgada Ground: 131.600
Santa Maria Approach: 119.100
Santa Maria Control: 132.150

LPMA Approach (Archives)
Madeira, Portugal

Feed Status: UP
Listen in your browser - HTML5 player(in browser, HTML5)
Click here to listen with your own player(launches your MP3 player)

LPMA 261230Z 03013KT 010V070 9999 FEW014 22/16 Q1021

LPMA Flight Activity (Flightaware)

Listeners: 0 out of 1114 total

Madeira Approach: 119.605

LPPR Approach #1 (Archives)
Porto, Portugal

Feed Status: UP
Listen in your browser - HTML5 player(in browser, HTML5)
Click here to listen with your own player(launches your MP3 player)

LPPR 261230Z 11009KT 080V140 CAVOK 30/13 Q1021

LPPR Flight Activity (Flightaware)

Listeners: 1 out of 1114 total

Porto Approach: 121.105

LRCL Twr/App #1 (Archives)
Cluj-Napoca, Romania

Feed Status: UP
Listen in your browser - HTML5 player(in browser, HTML5)
Click here to listen with your own player(launches your MP3 player)

LRCL 261230Z 01011KT 9999 FEW018 SCT044CB 14/07 Q1021

LRCL Flight Activity (Flightaware)

Listeners: 0 out of 1114 total

Cluj Approach: 126.425
Cluj Tower: 118.705

LRCL Twr/App/ACC (Archives)
Cluj-Napoca, Romania

Feed Status: UP
Listen in your browser - HTML5 player(in browser, HTML5)
Click here to listen with your own player(launches your MP3 player)

LRCL 261230Z 01011KT 9999 FEW018 SCT044CB 14/07 Q1021

LRCL Flight Activity (Flightaware)

Listeners: 0 out of 1114 total

Cluj Approach: 126.425
Cluj Tower: 118.705
Napoc ACC: 127.075

LROP Ground (Archives)
Bucharest, Romania

Feed Status: UP
Listen in your browser - HTML5 player(in browser, HTML5)
Click here to listen with your own player(launches your MP3 player)

LROP 261230Z 11013KT 9999 -TSRA SCT045CB 16/11 Q1020 TEMPO VRB15G25KT 5000 -TSRA

LROP Flight Activity (Flightaware)

Listeners: 0 out of 1114 total

Bucharest Ground: 121.855

LROP Radar (Archives)
Bucharest, Romania

Feed Status: UP
Listen in your browser - HTML5 player(in browser, HTML5)
Click here to listen with your own player(launches your MP3 player)

LROP 261230Z 11013KT 9999 -TSRA SCT045CB 16/11 Q1020 TEMPO VRB15G25KT 5000 -TSRA

LROP Flight Activity (Flightaware)

Listeners: 0 out of 1114 total

Bucharest Radar (Arges Mid sector): 121.175
Bucharest Radar (Arges Top Sector): 123.265
Bucharest Radar (Lomos Top Sector): 132.865

LROP Tower/Approach (Archives)
Bucharest, Romania

Feed Status: UP
Listen in your browser - HTML5 player(in browser, HTML5)
Click here to listen with your own player(launches your MP3 player)

LROP 261230Z 11013KT 9999 -TSRA SCT045CB 16/11 Q1020 TEMPO VRB15G25KT 5000 -TSRA

LROP Flight Activity (Flightaware)

Listeners: 0 out of 1114 total

Bucharest Approach: 119.415
Bucharest Director: 127.155
Bucharest Tower: 118.805

LROP Twr/App/Radar (Archives)
Bucharest, Romania

Feed Status: UP
Listen in your browser - HTML5 player(in browser, HTML5)
Click here to listen with your own player(launches your MP3 player)

LROP 261230Z 11013KT 9999 -TSRA SCT045CB 16/11 Q1020 TEMPO VRB15G25KT 5000 -TSRA

LROP Flight Activity (Flightaware)

Listeners: 8 out of 1114 total

Bucharest Approach: 119.415
Bucharest Director: 127.155
Bucharest Radar (Arges Mid sector): 121.175
Bucharest Radar (Arges Top Sector): 123.265
Bucharest Radar (Lomos Top Sector): 132.865
Bucharest Tower: 118.805

LRSB Tower/CTAF (Archives)
Sibiu, Romania

Feed Status: UP
Listen in your browser - HTML5 player(in browser, HTML5)
Click here to listen with your own player(launches your MP3 player)

LRSB 261230Z 34008KT 300V010 9999 FEW030 SCT035CB 15/06 Q1021 R27/29//95

LRSB Flight Activity (Flightaware)

Listeners: 0 out of 1114 total

Sibiu Tower: 121.305

LRTR Tower (Archives)
Timisoara, Romania

Feed Status: UP
Listen in your browser - HTML5 player(in browser, HTML5)
Click here to listen with your own player(launches your MP3 player)

LRTR 261230Z 02011KT 340V040 9999 -SHRA FEW035 SCT040CB 17/09 Q1021 TEMPO TSRA

LRTR Flight Activity (Flightaware)

Listeners: 1 out of 1114 total

ARAD Approach: 127.250
Timisoara Tower: 120.100

LSGS Gnd/Twr/App (Archives)
Sion, Switzerland

Feed Status: UP
Listen in your browser - HTML5 player(in browser, HTML5)
Click here to listen with your own player(launches your MP3 player)

LSGS 261250Z 25010KT 220V290 CAVOK 24/08 Q1026

LSGS Flight Activity (Flightaware)

Listeners: 3 out of 1114 total

Alpine Jet Service Handling: 131.675
Sion Airport Handling: 131.475
Sion Approach (IFR ARR MIL OFF): 126.825
Sion Ground: 121.700
Sion Tower: 118.275

LSMD Tower (Archives)
Dubendorf, Switzerland

Feed Status: UP
Listen in your browser - HTML5 player(in browser, HTML5)
Click here to listen with your own player(launches your MP3 player)

LSZH 261250Z 08005KT 020V150 9999 SCT050 20/07 Q1032 NOSIG

LSZH Flight Activity (Flightaware)

Listeners: 0 out of 1114 total

Dubendorf Tower: 118.975

LSPM AFIS (Archives)
Ambri, Switzerland

Feed Status: UP
Listen in your browser - HTML5 player(in browser, HTML5)
Click here to listen with your own player(launches your MP3 player)

LSPM Flight Activity (Flightaware)

Listeners: 1 out of 1114 total

Ambri AFIS: 118.525

LSZA Tower (Archives)
Agno, Switzerland

Feed Status: UP
Listen in your browser - HTML5 player(in browser, HTML5)
Click here to listen with your own player(launches your MP3 player)

LSZA 261250Z 19008KT 9999 FEW050 23/10 Q1025 NOSIG

LSZA Flight Activity (Flightaware)

Listeners: 2 out of 1114 total

Lugano Tower: 120.250

LSZB Twr/App/Dep (Archives)
Bern, Switzerland

Feed Status: UP
Listen in your browser - HTML5 player(in browser, HTML5)
Click here to listen with your own player(launches your MP3 player)

LSZB 261250Z 06008KT 010V110 CAVOK 20/07 Q1030 NOSIG

LSZB Flight Activity (Flightaware)

Listeners: 0 out of 1114 total

LSZB Arrival/Departure: 127.325
LSZB Tower: 121.025

LSZG Tower (Archives)
Grenchen, Switzerland

Feed Status: UP
Listen in your browser - HTML5 player(in browser, HTML5)
Click here to listen with your own player(launches your MP3 player)

LSZG 261250Z 08012KT 9999 FEW050 21/06 Q1031 NOSIG

LSZG Flight Activity (Flightaware)

Listeners: 3 out of 1114 total

Grenchen Tower: 120.100

LSZH Approach (East) (Archives)
Zurich, Switzerland

Feed Status: UP
Listen in your browser - HTML5 player(in browser, HTML5)
Click here to listen with your own player(launches your MP3 player)

LSZH 261250Z 08005KT 020V150 9999 SCT050 20/07 Q1032 NOSIG

LSZH Flight Activity (Flightaware)

Listeners: 1 out of 1114 total

Zurich Approach (East): 135.225

LSZH Approach (West) (Archives)
Zurich, Switzerland

Feed Status: UP
Listen in your browser - HTML5 player(in browser, HTML5)
Click here to listen with your own player(launches your MP3 player)

LSZH 261250Z 08005KT 020V150 9999 SCT050 20/07 Q1032 NOSIG

LSZH Flight Activity (Flightaware)

Listeners: 0 out of 1114 total

Zurich Approach (West): 118.000

LSZH Apron (South) (Archives)
Zurich, Switzerland

Feed Status: UP
Listen in your browser - HTML5 player(in browser, HTML5)
Click here to listen with your own player(launches your MP3 player)

LSZH 261250Z 08005KT 020V150 9999 SCT050 20/07 Q1032 NOSIG

LSZH Flight Activity (Flightaware)

Listeners: 2 out of 1114 total

Zurich Apron (South): 121.755

LSZH Apron (West) (Archives)
Zurich, Switzerland

Feed Status: UP
Listen in your browser - HTML5 player(in browser, HTML5)
Click here to listen with your own player(launches your MP3 player)

LSZH 261250Z 08005KT 020V150 9999 SCT050 20/07 Q1032 NOSIG

LSZH Flight Activity (Flightaware)

Listeners: 1 out of 1114 total

Zurich Apron (West): 121.855

LSZH Clearance Delivery (Archives)
Zurich, Switzerland

Feed Status: UP
Listen in your browser - HTML5 player(in browser, HTML5)
Click here to listen with your own player(launches your MP3 player)

LSZH 261250Z 08005KT 020V150 9999 SCT050 20/07 Q1032 NOSIG

LSZH Flight Activity (Flightaware)

Listeners: 2 out of 1114 total

Zurich Clearance Delivery: 121.925

LSZH Ground (Archives)
Zurich, Switzerland

Feed Status: UP
Listen in your browser - HTML5 player(in browser, HTML5)
Click here to listen with your own player(launches your MP3 player)

LSZH 261250Z 08005KT 020V150 9999 SCT050 20/07 Q1032 NOSIG

LSZH Flight Activity (Flightaware)

Listeners: 0 out of 1114 total

Zurich Ground: 121.905

LSZH Radar (Archives)
Zurich, Switzerland

Feed Status: UP
Listen in your browser - HTML5 player(in browser, HTML5)
Click here to listen with your own player(launches your MP3 player)

LSZH 261250Z 08005KT 020V150 9999 SCT050 20/07 Q1032 NOSIG

LSZH Flight Activity (Flightaware)

Listeners: 1 out of 1114 total

Zurich Radar ACC (-FL240 East): 133.900
Zurich Radar ACC (-FL240 North): 136.150
Zurich Radar ACC (-FL240 South): 128.050
Zurich Radar ACC (-FL240 West): 135.675
Zurich Radar ACC (FL250-280): 133.050
Zurich Radar ACC (FL290-320): 132.815
Zurich Radar ACC (FL330-350): 134.600
Zurich Radar ACC (FL360+): 133.400

LSZH Radar 132.815 (Archives)
Zurich, Switzerland

Feed Status: UP
Listen in your browser - HTML5 player(in browser, HTML5)
Click here to listen with your own player(launches your MP3 player)

LSZH 261250Z 08005KT 020V150 9999 SCT050 20/07 Q1032 NOSIG

LSZH Flight Activity (Flightaware)

Listeners: 1 out of 1114 total

Zurich Radar: 132.815

LSZH Radar 133.050 (Archives)
Zurich, Switzerland

Feed Status: UP
Listen in your browser - HTML5 player(in browser, HTML5)
Click here to listen with your own player(launches your MP3 player)

LSZH 261250Z 08005KT 020V150 9999 SCT050 20/07 Q1032 NOSIG

LSZH Flight Activity (Flightaware)

Listeners: 0 out of 1114 total

Zurich Radar: 133.050

LSZH Radar 133.405 (Archives)
Zurich, Switzerland

Feed Status: UP
Listen in your browser - HTML5 player(in browser, HTML5)
Click here to listen with your own player(launches your MP3 player)

LSZH 261250Z 08005KT 020V150 9999 SCT050 20/07 Q1032 NOSIG

LSZH Flight Activity (Flightaware)

Listeners: 0 out of 1114 total

Zurich Radar: 133.405

LSZH Radar 133.690 (Archives)
Zurich, Switzerland

Feed Status: UP
Listen in your browser - HTML5 player(in browser, HTML5)
Click here to listen with your own player(launches your MP3 player)

LSZH 261250Z 08005KT 020V150 9999 SCT050 20/07 Q1032 NOSIG

LSZH Flight Activity (Flightaware)

Listeners: 0 out of 1114 total

Zurich Radar: 133.690

LSZH Radar 133.905 (Archives)
Zurich, Switzerland

Feed Status: UP
Listen in your browser - HTML5 player(in browser, HTML5)
Click here to listen with your own player(launches your MP3 player)

LSZH 261250Z 08005KT 020V150 9999 SCT050 20/07 Q1032 NOSIG

LSZH Flight Activity (Flightaware)

Listeners: 0 out of 1114 total

Zurich Radar (Below FL240 East): 133.905

LSZH Radar 134.605 (Archives)
Zurich, Switzerland

Feed Status: UP
Listen in your browser - HTML5 player(in browser, HTML5)
Click here to listen with your own player(launches your MP3 player)

LSZH 261250Z 08005KT 020V150 9999 SCT050 20/07 Q1032 NOSIG

LSZH Flight Activity (Flightaware)

Listeners: 0 out of 1114 total

Zurich Radar (FL330-350): 134.605

LSZH Radar 135.680 (Archives)
Zurich, Switzerland

Feed Status: UP
Listen in your browser - HTML5 player(in browser, HTML5)
Click here to listen with your own player(launches your MP3 player)

LSZH 261250Z 08005KT 020V150 9999 SCT050 20/07 Q1032 NOSIG

LSZH Flight Activity (Flightaware)

Listeners: 0 out of 1114 total


LSZH Radar 136.155 (Archives)
Zurich, Switzerland

Feed Status: UP
Listen in your browser - HTML5 player(in browser, HTML5)
Click here to listen with your own player(launches your MP3 player)

LSZH 261250Z 08005KT 020V150 9999 SCT050 20/07 Q1032 NOSIG

LSZH Flight Activity (Flightaware)

Listeners: 0 out of 1114 total

Zurich Radar (Below FL240 North): 136.155

LSZH Tower (Archives)
Zurich, Switzerland

Feed Status: UP
Listen in your browser - HTML5 player(in browser, HTML5)
Click here to listen with your own player(launches your MP3 player)

LSZH 261250Z 08005KT 020V150 9999 SCT050 20/07 Q1032 NOSIG

LSZH Flight Activity (Flightaware)

Listeners: 5 out of 1114 total

Zurich Tower: 118.100

LSZH Tower (14/32) (Archives)
Zurich, Switzerland

Feed Status: UP
Listen in your browser - HTML5 player(in browser, HTML5)
Click here to listen with your own player(launches your MP3 player)

LSZH 261250Z 08005KT 020V150 9999 SCT050 20/07 Q1032 NOSIG

LSZH Flight Activity (Flightaware)

Listeners: 0 out of 1114 total

Zurich Tower (Rwy 14 App/32 Takeoff): 120.225

LSZH Twr/Gnd (backup) (Archives)
Zurich, Switzerland

Feed Status: UP
Listen in your browser - HTML5 player(in browser, HTML5)
Click here to listen with your own player(launches your MP3 player)

LSZH 261250Z 08005KT 020V150 9999 SCT050 20/07 Q1032 NOSIG

LSZH Flight Activity (Flightaware)

Listeners: 0 out of 1114 total

Zurich Twr/Gnd (backup): 119.700

LSZL Tower (Archives)
Locarno, Switzerland

Feed Status: UP
Listen in your browser - HTML5 player(in browser, HTML5)
Click here to listen with your own player(launches your MP3 player)

LSZL 261250Z 27004KT 210V330 9999 FEW070 23/12 Q1025 RMK BLU+

LSZL Flight Activity (Flightaware)

Listeners: 1 out of 1114 total


LSZN CTAF (Archives)
Zurich, Switzerland

Feed Status: UP
Listen in your browser - HTML5 player(in browser, HTML5)
Click here to listen with your own player(launches your MP3 player)

LSZN Flight Activity (Flightaware)

Listeners: 1 out of 1114 total

Hausen am Albis CTAF: 130.775

LSZR Tower (Archives)
Altenrhein, Switzerland

Feed Status: UP
Listen in your browser - HTML5 player(in browser, HTML5)
Click here to listen with your own player(launches your MP3 player)

LSZR 261250Z 32009KT 290V010 CAVOK 19/06 Q1032 NOSIG RMK G

LSZR Flight Activity (Flightaware)

Listeners: 1 out of 1114 total

Altenrhein Tower: 135.425

LSZW CTAF (Archives)
Thun, Switzerland

Feed Status: UP
Listen in your browser - HTML5 player(in browser, HTML5)
Click here to listen with your own player(launches your MP3 player)

LSZW Flight Activity (Flightaware)

Listeners: 0 out of 1114 total

Thun CTAF/Info: 123.250

LTBA Gnd/Twr/App (Archives)
Istanbul, Turkey

Feed Status: UP
Listen in your browser - HTML5 player(in browser, HTML5)
Click here to listen with your own player(launches your MP3 player)

LTBA 261250Z 05011KT 360V090 9999 FEW040 20/07 Q1018 NOSIG

LTBA Flight Activity (Flightaware)

Listeners: 5 out of 1114 total

Istanbul Approach: 126.425
Istanbul Ground: 121.800
Istanbul Tower: 118.100

LTFJ Del/Gnd/Twr (Archives)
Istanbul, Turkey

Feed Status: UP
Listen in your browser - HTML5 player(in browser, HTML5)
Click here to listen with your own player(launches your MP3 player)

LTFJ 261250Z 06014KT 9999 SCT035 BKN090 20/10 Q1017 NOSIG

LTFJ Flight Activity (Flightaware)

Listeners: 5 out of 1114 total

Gokcen Clearance Delivery: 122.625
Gokcen Ground: 121.750
Gokcen Tower: 118.800

LTFJ Pegasus Dispatch
Istanbul, Turkey

Feed Status: DOWN
Offline since: 2019-11-04 19:23:39 UTC

LTFJ 261250Z 06014KT 9999 SCT035 BKN090 20/10 Q1017 NOSIG

Pegasus Dispatch: 131.750

LUKK ACC #1 (Archives)
Chisinau, Moldova

Feed Status: UP
Listen in your browser - HTML5 player(in browser, HTML5)
Click here to listen with your own player(launches your MP3 player)

LUKK 261300Z 02009KT 350V050 9999 SCT043 SCT052 BKN065 17/07 Q1019 R08/CLRD// NOSIG

LUKK Flight Activity (Flightaware)

Listeners: 0 out of 1114 total

Chisinau ACC: 130.975

LUKK ACC #2 (Archives)
Chisinau, Moldova

Feed Status: UP
Listen in your browser - HTML5 player(in browser, HTML5)
Click here to listen with your own player(launches your MP3 player)

LUKK 261300Z 02009KT 350V050 9999 SCT043 SCT052 BKN065 17/07 Q1019 R08/CLRD// NOSIG

LUKK Flight Activity (Flightaware)

Listeners: 1 out of 1114 total

Chisinau ACC: 128.975

LUKK Air to Air (Archives)
Chisinau, Moldova

Feed Status: UP
Listen in your browser - HTML5 player(in browser, HTML5)
Click here to listen with your own player(launches your MP3 player)

LUKK 261300Z 02009KT 350V050 9999 SCT043 SCT052 BKN065 17/07 Q1019 R08/CLRD// NOSIG

LUKK Flight Activity (Flightaware)

Listeners: 0 out of 1114 total

Chisinau Air to Air: 123.450

LUKK Alternate (Archives)
Chisinau, Moldova

Feed Status: UP
Listen in your browser - HTML5 player(in browser, HTML5)
Click here to listen with your own player(launches your MP3 player)

LUKK 261300Z 02009KT 350V050 9999 SCT043 SCT052 BKN065 17/07 Q1019 R08/CLRD// NOSIG

LUKK Flight Activity (Flightaware)

Listeners: 0 out of 1114 total

Chisinau Alternate: 129.725

LUKK Approach #1
Chisinau, Moldova

Feed Status: DOWN
Offline since: 2020-02-11 03:09:41 UTC

LUKK 261300Z 02009KT 350V050 9999 SCT043 SCT052 BKN065 17/07 Q1019 R08/CLRD// NOSIG

Chisinau Approach: 133.300

LUKK Approach #2 (Archives)
Chisinau, Moldova

Feed Status: UP
Listen in your browser - HTML5 player(in browser, HTML5)
Click here to listen with your own player(launches your MP3 player)

LUKK 261300Z 02009KT 350V050 9999 SCT043 SCT052 BKN065 17/07 Q1019 R08/CLRD// NOSIG

LUKK Flight Activity (Flightaware)

Listeners: 0 out of 1114 total

Chisinau Approach: 133.300

LUKK Emergency/Guard (Archives)
Chisinau, Moldova

Feed Status: UP
Listen in your browser - HTML5 player(in browser, HTML5)
Click here to listen with your own player(launches your MP3 player)

LUKK 261300Z 02009KT 350V050 9999 SCT043 SCT052 BKN065 17/07 Q1019 R08/CLRD// NOSIG

LUKK Flight Activity (Flightaware)

Listeners: 0 out of 1114 total

Emergency/Guard: 121.500

LUKK Ground #1
Chisinau, Moldova

Feed Status: DOWN
Offline since: 2020-02-11 03:08:23 UTC

LUKK 261300Z 02009KT 350V050 9999 SCT043 SCT052 BKN065 17/07 Q1019 R08/CLRD// NOSIG

Chisinau Ground: 121.800

LUKK Ground #2 (Archives)
Chisinau, Moldova

Feed Status: UP
Listen in your browser - HTML5 player(in browser, HTML5)
Click here to listen with your own player(launches your MP3 player)

LUKK 261300Z 02009KT 350V050 9999 SCT043 SCT052 BKN065 17/07 Q1019 R08/CLRD// NOSIG

LUKK Flight Activity (Flightaware)

Listeners: 1 out of 1114 total

Chisinau Ground: 121.800

LUKK Handling (Archives)
Chisinau, Moldova

Feed Status: UP
Listen in your browser - HTML5 player(in browser, HTML5)
Click here to listen with your own player(launches your MP3 player)

LUKK 261300Z 02009KT 350V050 9999 SCT043 SCT052 BKN065 17/07 Q1019 R08/CLRD// NOSIG

LUKK Flight Activity (Flightaware)

Listeners: 0 out of 1114 total

Chisinau Handling: 131.700

LUKK Tower #2 (Archives)
Chisinau, Moldova

Feed Status: UP
Listen in your browser - HTML5 player(in browser, HTML5)
Click here to listen with your own player(launches your MP3 player)

LUKK 261300Z 02009KT 350V050 9999 SCT043 SCT052 BKN065 17/07 Q1019 R08/CLRD// NOSIG

LUKK Flight Activity (Flightaware)

Listeners: 0 out of 1114 total

Chisinau Tower: 118.100

LWSK ACC (Lower) (Archives)
Petrovec, Macedonia, Republic of

Feed Status: UP
Listen in your browser - HTML5 player(in browser, HTML5)
Click here to listen with your own player(launches your MP3 player)

LWSK 261300Z 33006KT 290V010 9999 FEW036 SCT070 17/07 Q1020 NOSIG

LWSK Flight Activity (Flightaware)

Listeners: 0 out of 1114 total

Skopje Control (Lower): 119.375

LWSK ACC (Upper) (Archives)
Petrovec, Macedonia, Republic of

Feed Status: UP
Listen in your browser - HTML5 player(in browser, HTML5)
Click here to listen with your own player(launches your MP3 player)

LWSK 261300Z 33006KT 290V010 9999 FEW036 SCT070 17/07 Q1020 NOSIG

LWSK Flight Activity (Flightaware)

Listeners: 0 out of 1114 total

Skopje Control (Upper): 120.015

LWSK Approach (Archives)
Petrovec, Macedonia, Republic of

Feed Status: UP
Listen in your browser - HTML5 player(in browser, HTML5)
Click here to listen with your own player(launches your MP3 player)

LWSK 261300Z 33006KT 290V010 9999 FEW036 SCT070 17/07 Q1020 NOSIG

LWSK Flight Activity (Flightaware)

Listeners: 0 out of 1114 total

Skopje Approach/Departure: 120.300

LWSK ATIS (Archives)
Petrovec, Macedonia, Republic of

Feed Status: UP
Listen in your browser - HTML5 player(in browser, HTML5)
Click here to listen with your own player(launches your MP3 player)

LWSK 261300Z 33006KT 290V010 9999 FEW036 SCT070 17/07 Q1020 NOSIG

LWSK Flight Activity (Flightaware)

Listeners: 0 out of 1114 total

Skopje ATIS: 130.125

LWSK Tower (Archives)
Petrovec, Macedonia, Republic of

Feed Status: UP
Listen in your browser - HTML5 player(in browser, HTML5)
Click here to listen with your own player(launches your MP3 player)

LWSK 261300Z 33006KT 290V010 9999 FEW036 SCT070 17/07 Q1020 NOSIG

LWSK Flight Activity (Flightaware)

Listeners: 0 out of 1114 total

Skopje Tower: 118.500

LYNI Twr/App (Archives)
Nis, Serbia

Feed Status: UP
Listen in your browser - HTML5 player(in browser, HTML5)
Click here to listen with your own player(launches your MP3 player)

LYNI 261230Z 32017KT 290V070 9999 FEW027 BKN033 17/09 Q1021 NOSIG

LYNI Flight Activity (Flightaware)

Listeners: 0 out of 1114 total

Nis Approach: 119.525
Nis Approach/Tower (Alternate): 136.075
Nis Tower: 118.950

LZKZ Gnd/Twr/App (Archives)
Kosice, Slovakia

Feed Status: UP
Listen in your browser - HTML5 player(in browser, HTML5)
Click here to listen with your own player(launches your MP3 player)

LZKZ 261230Z 01014KT 340V040 9999 SCT045 18/06 Q1024 NOSIG

LZKZ Flight Activity (Flightaware)

Listeners: 2 out of 1114 total

Kosice Approach: 129.350
Kosice Approach (backup): 119.850
Kosice Ground: 121.700
Kosice Handling: 131.850
Kosice Tower: 120.400

LZNI CTAF (Archives)
Nitra, Slovakia

Feed Status: UP
Listen in your browser - HTML5 player(in browser, HTML5)
Click here to listen with your own player(launches your MP3 player)

LZNI Flight Activity (Flightaware)

Listeners: 0 out of 1114 total

Nitra Traffic Radio: 123.405

LZPE CTAF/UNICOM (Archives)
Prievidza, Slovakia

Feed Status: UP
Listen in your browser - HTML5 player(in browser, HTML5)
Click here to listen with your own player(launches your MP3 player)

LZPE Flight Activity (Flightaware)

Listeners: 0 out of 1114 total

Prievidza CTAF/UNICOM: 123.055

LZPP Ground/Tower (Archives)
Piestany, Slovakia

Feed Status: UP
Listen in your browser - HTML5 player(in browser, HTML5)
Click here to listen with your own player(launches your MP3 player)

LZPP 261230Z 34014KT 310V010 9999 SCT025 16/09 Q1028

LZPP Flight Activity (Flightaware)

Listeners: 0 out of 1114 total

Piestany Ground: 121.700
Piestany Tower: 118.575

LZPT CTAF (Archives)
Partizanske, Slovakia

Feed Status: UP
Listen in your browser - HTML5 player(in browser, HTML5)
Click here to listen with your own player(launches your MP3 player)

LZPT Flight Activity (Flightaware)

Listeners: 0 out of 1114 total

Male Bielice CTAF: 123.500

UKKK Gnd/Twr/ACC
Kyiv, Ukraine

Feed Status: DOWN
Offline since: 2020-02-16 19:49:23 UTC

UKKK 261230Z 04006MPS 010V070 9999 BKN024 15/10 Q1023 R08/190060 NOSIG

Emergency/Guard: 121.500
Kyiv Radar ACC: 122.775
Kyiv Radar ACC: 124.675
Kyiv Radar ACC: 127.725
Kyiv Radar ACC: 128.175
Kyiv Radar ACC: 125.300
Kyiv Zhuliany Ground: 119.000
Kyiv Zhuliany Tower: 120.700

UMGG Control
Gomel, Belarus

Feed Status: DOWN
Offline since: 2019-12-11 18:02:40 UTC

UMGG 261230Z 32002MPS 9999 BKN053CB BKN084 16/13 Q1026 R10/290050 NOSIG

Minsk Control: 119.125
Minsk Control: 120.125
Minsk Control: 120.575

URKK Gnd/Twr/App (Archives)
Krasnodar, Russia

Feed Status: UP
Listen in your browser - HTML5 player(in browser, HTML5)
Click here to listen with your own player(launches your MP3 player)

URKK 261230Z 24006MPS 9999 SCT/// 20/12 Q1020 R23L/CLRD70 NOSIG RMK QFE762

URKK Flight Activity (Flightaware)

Listeners: 3 out of 1114 total

Krasnodar Approach: 129.600
Krasnodar Ground: 119.000
Krasnodar Radar: 121.300
Krasnodar Tower: 118.200

URMT Twr/App/Control (Archives)
Stavropol, Russia

Feed Status: UP
Listen in your browser - HTML5 player(in browser, HTML5)
Click here to listen with your own player(launches your MP3 player)

URMT 261230Z 32006MPS 9999 BKN040 19/10 Q1021 R25/010070 NOSIG RMK QFE727

URMT Flight Activity (Flightaware)

Listeners: 2 out of 1114 total

Stavropol Approach: 120.300
Stavropol Control: 118.250
Stavropol Tower: 120.900

URSS Gnd/Twr/App (Archives)
Sochi, Russia

Feed Status: UP
Listen in your browser - HTML5 player(in browser, HTML5)
Click here to listen with your own player(launches your MP3 player)

URSS 261230Z 28005MPS 9999 FEW030 18/11 Q1020 R06/010070 R02/010070 NOSIG RMK R02/27004MPS MT OBSC QFE764

URSS Flight Activity (Flightaware)

Listeners: 2 out of 1114 total

Sochi Approach: 118.300
Sochi Approach: 119.700
Sochi District (Small Aircraft): 118.500
Sochi Start: 121.200
Sochi Taxi: 119.000
Sochi Tower: 124.600

USDD Gnd/Twr/App/Control (Archives)
Salekhard, Russia

Feed Status: UP
Listen in your browser - HTML5 player(in browser, HTML5)
Click here to listen with your own player(launches your MP3 player)

USDD 150530Z 05007MPS 9999 -SHRA BKN009CB 09/07 Q1002 R04/290060 NOSIG RMK QFE746/0994

USDD Flight Activity (Flightaware)

Listeners: 0 out of 1114 total

Salekhard Control: 132.300
Salekhard Ground: 118.800
Salekhard Info: 125.200
Salekhard Krug: 120.800
Salekhard Tower: 118.600
Salekhard Transit: 131.700

UUDD Twr/App
Moscow, Russia

Feed Status: DOWN
Offline since: 2020-04-10 05:30:40 UTC

UUDD 261230Z 11003MPS 060V140 CAVOK 18/03 Q1027 R14R/CLRD60 NOSIG

Domodedovo Tower: 118.600
Moscow Approach: 125.300
Moscow Approach: 127.700

UUEE Twr/App/Radar (Archives)
Moscow, Russia

Feed Status: UP
Listen in your browser - HTML5 player(in browser, HTML5)
Click here to listen with your own player(launches your MP3 player)

UUEE 261230Z 10003MPS 020V150 CAVOK 18/02 Q1027 R06R/CLRD62 NOSIG

UUEE Flight Activity (Flightaware)

Listeners: 1 out of 1114 total

Sheremetyevo Radar: 118.100
Sheremetyevo Radar/Departure: 126.600
Sheremetyevo Tower: 131.500
Sheremetyevo Tower (Rwy 24R/06L): 118.700